FW7377 Weather Reports


time (UTC)temp
C
wind
direction
speed
KPH
gust
KPH
rain 1hr
cm
rain 24hr
cm
rain mn
cm
humidity
%
barometer
mb
20260508003101 11 90 4.8 6.4 0.00 0.00 0.00 90 1014.4
20260508003001 11 68 1.6 3.2 0.00 0.00 0.00 90 1014.3
20260508002902 11 112 3.2 3.2 0.00 0.00 0.00 90 1014.5
20260508002802 11 112 1.6 3.2 0.00 0.00 0.00 90 1014.7
20260508002702 11 90 3.2 6.4 0.00 0.00 0.00 90 1014.5
20260508002602 11 68 3.2 6.4 0.00 0.00 0.00 90 1014.5
20260508002502 11 90 3.2 3.2 0.00 0.00 0.00 90 1014.6
20260508002402 11 68 3.2 6.4 0.00 0.00 0.00 90 1014.7
20260508002306 11 90 3.2 6.4 0.00 0.00 0.00 90 1014.5
20260508002202 12 68 4.8 6.4 0.00 0.00 0.00 90 1014.5
20260508002102 12 68 4.8 6.4 0.00 0.00 0.00 90 1014.5
20260508002002 12 68 4.8 6.4 0.00 0.00 0.00 90 1014.6
20260508001901 12 90 3.2 3.2 0.00 0.00 0.00 90 1014.7
20260508001802 12 68 4.8 6.4 0.00 0.00 0.00 90 1014.7
20260508001702 12 68 3.2 6.4 0.00 0.00 0.00 89 1014.7
20260508001602 12 112 3.2 6.4 0.00 0.00 0.00 89 1014.6
20260508001501 12 112 3.2 6.4 0.00 0.00 0.00 89 1014.8
20260508001402 12 112 4.8 6.4 0.00 0.00 0.00 89 1014.7
20260508001302 12 112 3.2 3.2 0.00 0.00 0.00 89 1014.9
20260508001201 12 90 3.2 6.4 0.00 0.00 0.00 89 1014.8
20260508001101 12 68 3.2 6.4 0.00 0.00 0.00 89 1014.6
20260508001001 12 90 3.2 3.2 0.00 0.00 0.00 89 1014.7
20260508000901 12 90 3.2 6.4 0.00 0.00 0.00 88 1014.6
20260508000801 12 68 4.8 6.4 0.00 0.00 0.00 88 1014.6
20260508000701 12 68 4.8 6.4 0.00 0.00 0.00 88 1014.5
20260508000601 12 68 3.2 3.2 0.00 0.00 0.00 88 1014.8
20260508000501 12 68 3.2 3.2 0.00 0.00 0.00 88 1014.6
20260508000404 12 68 3.2 3.2 0.00 0.00 0.00 88 1014.6
20260508000301 12 68 3.2 3.2 0.00 0.00 0.00 88 1014.7
20260508000201 12 68 3.2 3.2 0.00 0.00 0.00 88 1014.7
20260508000101 12 68 3.2 3.2 0.00 0.00 0.00 88 1014.6
20260508000000 12 45 3.2 3.2 0.00 0.00 0.00 88 1014.8
20260507235902 12 68 1.6 3.2 0.00 0.00 0.00 88 1014.9
20260507235802 12 90 0.0 0.0 0.00 0.00 0.00 88 1014.9
20260507235702 12 90 0.0 0.0 0.00 0.00 0.00 88 1014.7
20260507235602 12 90 0.0 0.0 0.00 0.00 0.00 88 1014.4
20260507235502 12 90 0.0 3.2 0.00 0.00 0.00 88 1014.5
20260507235401 12 68 1.6 3.2 0.00 0.00 0.00 88 1014.6
20260507235301 12 45 3.2 3.2 0.00 0.00 0.00 88 1014.6
20260507235201 12 45 3.2 3.2 0.00 0.00 0.00 88 1014.6
20260507235102 12 45 1.6 3.2 0.00 0.00 0.00 88 1014.8
20260507235002 13 68 1.6 3.2 0.00 0.00 0.00 88 1014.5
20260507234902 13 90 1.6 3.2 0.00 0.00 0.00 88 1014.7
20260507234801 13 90 3.2 6.4 0.00 0.00 0.00 88 1014.8
20260507234701 13 68 3.2 6.4 0.00 0.00 0.00 88 1014.7
20260507234602 13 22 3.2 6.4 0.00 0.00 0.00 88 1014.7
20260507234501 13 45 3.2 6.4 0.00 0.00 0.00 88 1014.7
20260507234401 13 45 4.8 6.4 0.00 0.00 0.00 88 1014.8
20260507234301 13 45 3.2 6.4 0.00 0.00 0.00 88 1014.9
20260507234202 13 68 3.2 6.4 0.00 0.00 0.00 88 1014.5
20260507234101 13 45 3.2 3.2 0.00 0.00 0.00 88 1014.9
20260507234001 13 68 3.2 6.4 0.00 0.00 0.00 88 1014.9
20260507233901 13 68 1.6 3.2 0.00 0.00 0.00 88 1014.6
20260507233801 13 45 3.2 3.2 0.00 0.00 0.00 88 1014.7
20260507233701 13 90 1.6 3.2 0.00 0.00 0.00 88 1014.7
20260507233600 13 90 3.2 3.2 0.00 0.00 0.00 88 1014.8
20260507233501 13 68 3.2 3.2 0.00 0.00 0.00 88 1014.8
20260507233401 13 90 1.6 3.2 0.00 0.00 0.00 88 1014.7
20260507233301 13 90 3.2 3.2 0.00 0.00 0.00 88 1014.9
20260507233201 13 90 3.2 6.4 0.00 0.00 0.00 88 1015.0
20260507233101 13 90 3.2 6.4 0.00 0.00 0.00 88 1014.8
20260507233002 13 68 3.2 3.2 0.00 0.00 0.00 87 1014.8
20260507232902 13 68 3.2 3.2 0.00 0.00 0.00 87 1014.9
20260507232802 13 68 3.2 3.2 0.00 0.00 0.00 87 1014.9
20260507232701 13 90 3.2 6.4 0.00 0.00 0.00 87 1014.8
20260507232602 13 68 3.2 6.4 0.00 0.00 0.00 87 1015.0
20260507232501 13 90 3.2 6.4 0.00 0.00 0.00 87 1015.0
20260507232401 13 90 3.2 6.4 0.00 0.00 0.00 87 1014.9
20260507232301 13 90 3.2 6.4 0.00 0.00 0.00 87 1015.0
20260507232202 13 90 3.2 6.4 0.00 0.00 0.00 87 1015.0
20260507232101 13 68 3.2 6.4 0.00 0.00 0.00 87 1015.0
20260507232001 13 68 3.2 6.4 0.00 0.00 0.00 87 1015.1
20260507231901 13 68 3.2 3.2 0.00 0.00 0.00 87 1015.1
20260507231802 13 45 3.2 6.4 0.00 0.00 0.00 87 1015.2
20260507231701 13 68 3.2 3.2 0.00 0.00 0.00 87 1015.2
20260507231602 13 68 3.2 6.4 0.00 0.00 0.00 87 1015.2
20260507231502 13 45 3.2 6.4 0.00 0.00 0.00 87 1015.2
20260507231401 13 68 3.2 6.4 0.00 0.00 0.00 87 1015.2
20260507231302 13 68 3.2 6.4 0.00 0.00 0.00 87 1015.2
20260507231201 13 90 4.8 6.4 0.00 0.00 0.00 87 1015.3
20260507231101 13 45 4.8 6.4 0.00 0.00 0.00 87 1015.1
20260507231001 13 90 4.8 6.4 0.00 0.00 0.00 88 1015.1
20260507230903 13 45 4.8 6.4 0.00 0.00 0.00 88 1015.2
20260507230802 13 90 4.8 6.4 0.00 0.00 0.00 88 1015.2
20260507230702 13 68 4.8 6.4 0.00 0.00 0.00 88 1015.1
20260507230602 13 45 3.2 6.4 0.00 0.00 0.00 88 1015.1
20260507230501 13 68 3.2 6.4 0.00 0.00 0.00 88 1014.9
20260507230402 13 68 3.2 6.4 0.00 0.00 0.00 88 1015.1
20260507230302 13 45 3.2 6.4 0.00 0.00 0.00 88 1014.9
20260507230202 13 45 3.2 6.4 0.00 0.00 0.00 88 1015.2
20260507230002 13 68 3.2 3.2 0.00 0.00 0.00 88 1015.2
20260507225901 13 90 3.2 3.2 0.00 0.00 0.00 88 1015.3
20260507225801 13 68 1.6 3.2 0.00 0.00 0.00 88 1015.1
20260507225701 13 90 0.0 0.0 0.00 0.00 0.00 88 1015.1
20260507225602 13 68 0.0 3.2 0.00 0.00 0.00 88 1015.2
20260507225502 13 90 0.0 0.0 0.00 0.00 0.00 88 1015.1
20260507225402 13 90 0.0 3.2 0.00 0.00 0.00 88 1015.0
20260507225305 13 45 0.0 0.0 0.00 0.00 0.00 88 1015.1
20260507225202 13 90 3.2 3.2 0.00 0.00 0.00 87 1014.9
20260507225101 13 68 3.2 3.2 0.00 0.00 0.00 87 1015.0
20260507225002 13 68 3.2 3.2 0.00 0.00 0.00 87 1015.1
20260507224901 13 68 1.6 3.2 0.00 0.00 0.00 87 1015.0
20260507224801 13 68 0.0 0.0 0.00 0.00 0.00 87 1014.9
20260507224701 13 68 1.6 3.2 0.00 0.00 0.00 87 1014.8
20260507224601 13 90 3.2 3.2 0.00 0.00 0.00 87 1014.9
20260507224501 13 90 3.2 3.2 0.00 0.00 0.00 87 1014.8
20260507224401 13 68 3.2 3.2 0.00 0.00 0.00 87 1015.1
20260507224301 13 90 3.2 3.2 0.00 0.00 0.00 87 1015.0
20260507224201 13 68 0.0 0.0 0.00 0.00 0.00 87 1014.9
20260507224101 13 90 0.0 0.0 0.00 0.00 0.00 87 1014.8
20260507224001 13 68 0.0 3.2 0.00 0.00 0.00 87 1015.0
20260507223901 13 90 1.6 3.2 0.00 0.00 0.00 87 1014.9
20260507223802 13 90 1.6 3.2 0.00 0.00 0.00 87 1014.9
20260507223702 13 68 3.2 6.4 0.00 0.00 0.00 87 1015.0
20260507223602 13 45 1.6 3.2 0.00 0.00 0.00 86 1015.0
20260507223501 13 68 1.6 3.2 0.00 0.00 0.00 86 1015.2
20260507223402 13 45 1.6 3.2 0.00 0.00 0.00 86 1015.0
20260507223302 13 90 0.0 0.0 0.00 0.00 0.00 86 1015.1
20260507223202 13 90 1.6 3.2 0.00 0.00 0.00 86 1014.9
20260507223102 13 68 1.6 3.2 0.00 0.00 0.00 86 1015.1
20260507223002 13 68 3.2 3.2 0.00 0.00 0.00 86 1015.1
20260507222901 13 68 3.2 6.4 0.00 0.00 0.00 86 1015.0
20260507222801 13 45 1.6 3.2 0.00 0.00 0.00 86 1015.1
20260507222701 13 45 3.2 3.2 0.00 0.00 0.00 86 1015.2
20260507222601 13 90 3.2 6.4 0.00 0.00 0.00 86 1015.2
20260507222501 13 90 3.2 6.4 0.00 0.00 0.00 86 1015.2
20260507222401 13 90 3.2 6.4 0.00 0.00 0.00 86 1015.2
20260507222301 13 90 3.2 6.4 0.00 0.00 0.00 86 1015.1
20260507222202 13 45 3.2 6.4 0.00 0.00 0.00 86 1015.4
20260507222101 13 45 1.6 3.2 0.00 0.00 0.00 87 1015.2
20260507222002 13 45 3.2 3.2 0.00 0.00 0.00 87 1015.2
20260507221901 13 68 0.0 0.0 0.00 0.00 0.00 87 1015.3
20260507221801 13 68 0.0 0.0 0.00 0.00 0.00 87 1015.1
20260507221702 13 45 0.0 0.0 0.00 0.00 0.00 87 1015.3
20260507221603 13 68 0.0 0.0 0.00 0.00 0.00 87 1015.2
20260507221502 13 90 0.0 0.0 0.00 0.00 0.00 87 1015.3
20260507221402 13 90 0.0 0.0 0.00 0.00 0.00 87 1015.2
20260507221302 13 68 0.0 0.0 0.00 0.00 0.00 87 1015.0
20260507221201 13 68 0.0 0.0 0.00 0.00 0.00 87 1015.2
20260507221102 13 45 0.0 0.0 0.00 0.00 0.00 87 1015.1
20260507221002 13 68 1.6 3.2 0.00 0.00 0.00 87 1015.2
20260507220901 13 90 1.6 3.2 0.00 0.00 0.00 87 1015.0
20260507220802 13 112 0.0 3.2 0.00 0.00 0.00 87 1015.1
20260507220702 13 90 1.6 3.2 0.00 0.00 0.00 87 1015.1
20260507220602 13 90 1.6 3.2 0.00 0.00 0.00 87 1015.0
20260507220502 13 90 1.6 3.2 0.00 0.00 0.00 87 1015.2
20260507220402 13 68 0.0 0.0 0.00 0.00 0.00 87 1015.1
20260507220302 13 90 0.0 0.0 0.00 0.00 0.00 87 1015.0
20260507220201 13 68 0.0 0.0 0.00 0.00 0.00 87 1015.0
20260507220101 13 90 0.0 0.0 0.00 0.00 0.00 87 1015.0
20260507220002 13 90 0.0 0.0 0.00 0.00 0.00 87 1015.0
20260507215900 13 90 0.0 0.0 0.00 0.00 0.00 87 1015.1
20260507215801 13 90 0.0 0.0 0.00 0.00 0.00 87 1015.0
20260507215701 13 112 0.0 0.0 0.00 0.00 0.00 87 1015.0
20260507215601 13 112 0.0 0.0 0.00 0.00 0.00 87 1015.1
20260507215501 13 90 0.0 0.0 0.00 0.00 0.00 87 1015.1
20260507215401 13 135 0.0 0.0 0.00 0.00 0.00 87 1015.0
20260507215300 13 135 0.0 0.0 0.00 0.00 0.00 87 1015.0
20260507215202 13 135 0.0 0.0 0.00 0.00 0.00 87 1015.0
20260507215101 13 225 0.0 0.0 0.00 0.00 0.00 87 1015.0
20260507215002 13 225 0.0 0.0 0.00 0.00 0.00 87 1015.1
20260507214902 13 225 0.0 0.0 0.00 0.00 0.00 87 1014.9
20260507214802 13 158 0.0 0.0 0.00 0.00 0.00 87 1015.2
20260507214702 13 112 0.0 0.0 0.00 0.00 0.00 87 1014.8
20260507214601 13 112 0.0 0.0 0.00 0.00 0.00 87 1015.1
20260507214502 13 180 0.0 0.0 0.00 0.00 0.00 87 1015.0
20260507214402 13 135 0.0 0.0 0.00 0.00 0.00 86 1014.8
20260507214304 13 180 0.0 0.0 0.00 0.00 0.00 86 1014.9
20260507214201 13 202 0.0 0.0 0.00 0.00 0.00 86 1015.1
20260507214101 13 202 0.0 0.0 0.00 0.00 0.00 86 1014.9
20260507214002 13 180 0.0 0.0 0.00 0.00 0.00 86 1014.9
20260507213901 13 202 0.0 0.0 0.00 0.00 0.00 86 1015.0
20260507213802 13 202 0.0 0.0 0.00 0.00 0.00 86 1015.0
20260507213702 13 225 0.0 0.0 0.00 0.00 0.00 86 1015.0
20260507213602 13 225 0.0 0.0 0.00 0.00 0.00 86 1014.9
20260507213501 13 225 0.0 0.0 0.00 0.00 0.00 86 1015.1
20260507213402 13 225 0.0 0.0 0.00 0.00 0.00 85 1014.9
20260507213301 13 158 0.0 0.0 0.00 0.00 0.00 85 1015.0
20260507213201 13 135 0.0 0.0 0.00 0.00 0.00 85 1014.9
20260507213102 13 135 0.0 0.0 0.00 0.00 0.00 85 1014.8
20260507213001 13 90 0.0 0.0 0.00 0.00 0.00 84 1014.7
20260507212902 13 90 0.0 0.0 0.00 0.00 0.00 84 1015.0
20260507212802 13 68 0.0 0.0 0.00 0.00 0.00 84 1014.8
20260507212702 13 68 0.0 0.0 0.00 0.00 0.00 84 1014.9
20260507212602 13 90 0.0 0.0 0.00 0.00 0.00 84 1014.9
20260507212502 13 68 1.6 3.2 0.00 0.00 0.00 84 1014.7
20260507212402 13 45 1.6 3.2 0.00 0.00 0.00 84 1015.0
20260507212306 13 90 0.0 0.0 0.00 0.00 0.00 84 1014.7
20260507212202 13 112 1.6 3.2 0.00 0.00 0.00 84 1015.0
20260507212101 13 90 0.0 0.0 0.00 0.00 0.00 84 1014.9
20260507212001 13 112 0.0 0.0 0.00 0.00 0.00 83 1014.7
20260507211902 13 90 0.0 0.0 0.00 0.00 0.00 83 1014.6
20260507211802 13 68 0.0 0.0 0.00 0.00 0.00 83 1015.0
20260507211702 13 68 0.0 0.0 0.00 0.00 0.00 82 1015.0
20260507211602 13 68 0.0 0.0 0.00 0.00 0.00 82 1014.9
20260507211501 13 68 0.0 0.0 0.00 0.00 0.00 82 1015.0
20260507211401 13 68 0.0 0.0 0.00 0.00 0.00 82 1014.8
20260507211301 13 68 0.0 0.0 0.00 0.00 0.00 82 1014.9
20260507211201 13 68 0.0 0.0 0.00 0.00 0.00 82 1014.5
20260507211102 13 68 0.0 0.0 0.00 0.00 0.00 82 1014.7
20260507211002 13 68 0.0 0.0 0.00 0.00 0.00 82 1014.7
20260507210902 13 68 0.0 0.0 0.00 0.00 0.00 82 1014.7
20260507210801 13 68 0.0 0.0 0.00 0.00 0.00 82 1014.8
20260507210701 13 68 0.0 0.0 0.00 0.00 0.00 82 1014.7
20260507210602 13 68 0.0 0.0 0.00 0.00 0.00 82 1014.6
20260507210501 13 45 0.0 0.0 0.00 0.00 0.00 82 1014.9
20260507210401 13 45 0.0 0.0 0.00 0.00 0.00 82 1014.7
20260507210301 13 45 0.0 0.0 0.00 0.00 0.00 83 1014.8
20260507210202 13 68 0.0 0.0 0.00 0.00 0.00 83 1015.0
20260507210002 13 68 0.0 0.0 0.00 0.00 0.00 82 1014.9
20260507205902 13 68 0.0 0.0 0.00 0.00 0.00 82 1014.8
20260507205802 13 68 0.0 0.0 0.00 0.00 0.00 82 1014.9
20260507205702 13 68 0.0 0.0 0.00 0.00 0.00 82 1014.9
20260507205602 13 68 0.0 0.0 0.00 0.00 0.00 82 1014.8
20260507205502 13 68 0.0 0.0 0.00 0.00 0.00 82 1014.9
20260507205401 13 68 0.0 0.0 0.00 0.00 0.00 82 1015.0
20260507205302 13 68 0.0 0.0 0.00 0.00 0.00 82 1014.7
20260507205202 13 68 0.0 0.0 0.00 0.00 0.00 82 1014.8
20260507205101 13 68 0.0 0.0 0.00 0.00 0.00 82 1015.1
20260507205003 13 68 0.0 0.0 0.00 0.00 0.00 82 1015.1
20260507204901 13 68 0.0 0.0 0.00 0.00 0.00 82 1015.0
20260507204801 13 68 0.0 0.0 0.00 0.00 0.00 82 1014.9
20260507204701 13 68 0.0 0.0 0.00 0.00 0.00 82 1014.6
20260507204602 13 68 0.0 0.0 0.00 0.00 0.00 81 1014.7
20260507204501 13 68 0.0 0.0 0.00 0.00 0.00 81 1015.0
20260507204401 13 68 0.0 0.0 0.00 0.00 0.00 81 1015.0
20260507204301 13 68 0.0 0.0 0.00 0.00 0.00 81 1015.1
20260507204201 13 68 0.0 0.0 0.00 0.00 0.00 81 1014.9
20260507204102 13 68 0.0 0.0 0.00 0.00 0.00 82 1014.9
20260507204001 13 68 0.0 0.0 0.00 0.00 0.00 82 1014.9
20260507203902 13 68 0.0 0.0 0.00 0.00 0.00 82 1015.0
20260507203802 13 45 0.0 0.0 0.00 0.00 0.00 82 1014.8
20260507203702 13 45 0.0 0.0 0.00 0.00 0.00 82 1015.0
20260507203602 13 68 0.0 0.0 0.00 0.00 0.00 82 1015.1
20260507203502 13 68 0.0 0.0 0.00 0.00 0.00 82 1014.8
20260507203402 13 68 0.0 0.0 0.00 0.00 0.00 81 1015.0
20260507203303 13 68 0.0 0.0 0.00 0.00 0.00 81 1015.0
20260507203201 13 68 0.0 0.0 0.00 0.00 0.00 81 1014.9
20260507203101 13 68 0.0 0.0 0.00 0.00 0.00 81 1014.9
20260507203002 13 68 0.0 0.0 0.00 0.00 0.00 81 1014.8
20260507202901 13 68 0.0 0.0 0.00 0.00 0.00 81 1014.9
20260507202801 13 68 0.0 0.0 0.00 0.00 0.00 81 1014.8
20260507202701 13 68 0.0 0.0 0.00 0.00 0.00 81 1015.1
20260507202601 13 68 0.0 0.0 0.00 0.00 0.00 81 1015.0
20260507202502 14 68 0.0 0.0 0.00 0.00 0.00 81 1015.0
20260507202401 13 68 0.0 0.0 0.00 0.00 0.00 80 1014.9
20260507202301 13 68 0.0 0.0 0.00 0.00 0.00 80 1015.2
20260507202202 13 68 0.0 0.0 0.00 0.00 0.00 80 1015.0
20260507202101 13 68 0.0 0.0 0.00 0.00 0.00 80 1014.8
20260507202002 14 68 0.0 0.0 0.00 0.00 0.00 80 1014.8
20260507201901 14 68 0.0 0.0 0.00 0.00 0.00 80 1014.9
20260507201801 14 68 0.0 0.0 0.00 0.00 0.00 80 1014.8
20260507201702 14 68 0.0 0.0 0.00 0.00 0.00 80 1014.8
20260507201602 14 68 0.0 0.0 0.00 0.00 0.00 80 1014.8
20260507201502 14 68 0.0 0.0 0.00 0.00 0.00 80 1014.7
20260507201402 14 68 0.0 0.0 0.00 0.00 0.00 80 1014.8
20260507201302 14 68 0.0 0.0 0.00 0.00 0.00 80 1014.8
20260507201201 14 68 0.0 0.0 0.00 0.00 0.00 80 1014.9
20260507201101 14 68 0.0 0.0 0.00 0.00 0.00 80 1015.0
20260507201002 14 68 0.0 0.0 0.00 0.00 0.00 80 1014.9
20260507200902 14 68 0.0 0.0 0.00 0.00 0.00 80 1014.8
20260507200801 14 68 0.0 0.0 0.00 0.00 0.00 80 1014.9
20260507200703 14 68 0.0 0.0 0.00 0.00 0.00 80 1014.7
20260507200601 14 68 0.0 0.0 0.00 0.00 0.00 80 1014.9
20260507200501 14 68 0.0 0.0 0.00 0.00 0.00 80 1014.7
20260507200402 14 68 0.0 0.0 0.00 0.00 0.00 80 1014.9
20260507200302 14 68 0.0 0.0 0.00 0.00 0.00 80 1014.5
20260507200202 14 68 0.0 0.0 0.00 0.00 0.00 80 1014.7
20260507200001 15 68 0.0 0.0 0.00 0.00 0.00 80 1014.5
20260507195902 15 68 0.0 0.0 0.00 0.00 0.00 79 1014.8
20260507195802 15 90 0.0 0.0 0.00 0.00 0.00 79 1014.7
20260507195702 15 68 0.0 0.0 0.00 0.00 0.00 79 1014.6
20260507195602 15 68 0.0 0.0 0.00 0.00 0.00 79 1014.8
20260507195502 15 68 0.0 0.0 0.00 0.00 0.00 79 1014.8
20260507195402 15 90 0.0 0.0 0.00 0.00 0.00 79 1014.7
20260507195305 15 90 0.0 0.0 0.00 0.00 0.00 79 1015.0
20260507195201 15 90 0.0 0.0 0.00 0.00 0.00 79 1014.6
20260507195102 15 90 0.0 0.0 0.00 0.00 0.00 79 1014.8
20260507195002 15 90 0.0 0.0 0.00 0.00 0.00 79 1014.6
20260507194902 15 90 0.0 0.0 0.00 0.00 0.00 79 1014.7
20260507194801 15 90 1.6 3.2 0.00 0.00 0.00 79 1014.9
20260507194701 15 45 3.2 6.4 0.00 0.00 0.00 79 1014.6
20260507194602 15 90 0.0 0.0 0.00 0.00 0.00 79 1014.8
20260507194502 15 90 0.0 0.0 0.00 0.00 0.00 79 1015.1
20260507194402 15 90 0.0 0.0 0.00 0.00 0.00 79 1014.8
20260507194302 15 90 0.0 0.0 0.00 0.00 0.00 79 1014.7
20260507194201 15 90 0.0 0.0 0.00 0.00 0.00 79 1014.9
20260507194102 15 45 0.0 0.0 0.00 0.00 0.00 79 1014.7
20260507194002 15 45 0.0 0.0 0.00 0.00 0.00 79 1014.9
20260507193902 15 45 0.0 0.0 0.00 0.00 0.00 79 1014.7
20260507193802 15 45 0.0 0.0 0.00 0.00 0.00 79 1014.9
20260507193701 15 45 3.2 3.2 0.00 0.00 0.00 79 1015.0
20260507193602 15 45 3.2 6.4 0.00 0.00 0.00 78 1014.8
20260507193502 16 45 0.0 0.0 0.00 0.00 0.00 78 1015.0
20260507193402 16 45 0.0 0.0 0.00 0.00 0.00 78 1014.9
20260507193302 16 45 0.0 0.0 0.00 0.00 0.00 78 1014.6
20260507193201 16 45 0.0 0.0 0.00 0.00 0.00 78 1014.8
20260507193101 16 45 0.0 0.0 0.00 0.00 0.00 77 1014.8
20260507193001 16 45 0.0 0.0 0.00 0.00 0.00 77 1014.5
20260507192902 16 45 0.0 0.0 0.00 0.00 0.00 77 1014.8
20260507192802 16 68 0.0 0.0 0.00 0.00 0.00 77 1014.8
20260507192701 16 270 1.6 3.2 0.00 0.00 0.00 77 1015.0
20260507192602 16 292 1.6 3.2 0.00 0.00 0.00 77 1014.7
20260507192501 16 292 3.2 3.2 0.00 0.00 0.00 77 1014.9
20260507192402 16 270 0.0 0.0 0.00 0.00 0.00 77 1014.8
20260507192305 16 292 1.6 3.2 0.00 0.00 0.00 77 1014.8
20260507192201 16 270 1.6 3.2 0.00 0.00 0.00 77 1014.8
20260507192102 16 292 0.0 0.0 0.00 0.00 0.00 77 1014.8
20260507192002 16 292 1.6 3.2 0.00 0.00 0.00 77 1014.6
20260507191901 16 270 3.2 3.2 0.00 0.00 0.00 76 1014.8
20260507191802 16 270 1.6 3.2 0.00 0.00 0.00 76 1014.9
20260507191701 16 270 0.0 0.0 0.00 0.00 0.00 76 1014.8
20260507191602 16 292 0.0 0.0 0.00 0.00 0.00 76 1014.8
20260507191501 16 90 0.0 0.0 0.00 0.00 0.00 76 1014.7
20260507191401 16 112 0.0 0.0 0.00 0.00 0.00 75 1014.5
20260507191301 16 112 0.0 0.0 0.00 0.00 0.00 75 1014.5
20260507191201 16 45 0.0 0.0 0.00 0.00 0.00 75 1014.7
20260507191101 16 90 0.0 0.0 0.00 0.00 0.00 75 1014.5
20260507191001 16 22 0.0 0.0 0.00 0.00 0.00 75 1014.7
20260507190903 16 45 0.0 0.0 0.00 0.00 0.00 75 1014.7
20260507190802 16 68 0.0 0.0 0.00 0.00 0.00 75 1014.7
20260507190702 16 270 0.0 0.0 0.00 0.00 0.00 75 1014.8
20260507190602 16 225 0.0 0.0 0.00 0.00 0.00 75 1014.8
20260507190502 16 202 0.0 0.0 0.00 0.00 0.00 74 1014.7
20260507190401 16 225 0.0 0.0 0.00 0.00 0.00 74 1014.8
20260507190303 16 0 0.0 0.0 0.00 0.00 0.00 74 1014.8
20260507190202 16 90 1.6 3.2 0.00 0.00 0.00 74 1014.5
20260507190003 16 90 0.0 3.2 0.00 0.00 0.00 74 1014.6
20260507185902 16 90 0.0 0.0 0.00 0.00 0.00 74 1014.6
20260507185801 16 270 3.2 6.4 0.00 0.00 0.00 74 1014.5
20260507185701 16 292 1.6 6.4 0.00 0.00 0.00 74 1014.5
20260507185601 16 292 0.0 3.2 0.00 0.00 0.00 74 1014.6
20260507185501 16 270 3.2 3.2 0.00 0.00 0.00 74 1014.5
20260507185401 16 248 1.6 3.2 0.00 0.00 0.00 74 1014.5
20260507185305 16 270 3.2 6.4 0.00 0.00 0.00 74 1014.5
20260507185201 16 292 1.6 6.4 0.00 0.00 0.00 74 1014.4
20260507185102 16 248 1.6 3.2 0.00 0.00 0.00 74 1014.6
20260507185002 16 292 3.2 6.4 0.00 0.00 0.00 74 1014.8
20260507184901 16 270 0.0 3.2 0.00 0.00 0.00 74 1014.5
20260507184801 16 270 0.0 0.0 0.00 0.00 0.00 74 1014.4
20260507184701 16 90 0.0 0.0 0.00 0.00 0.00 74 1014.8
20260507184601 16 270 0.0 3.2 0.00 0.00 0.00 74 1014.7
20260507184501 16 270 3.2 6.4 0.00 0.00 0.00 74 1014.6
20260507184401 16 292 3.2 6.4 0.00 0.00 0.00 74 1014.5
20260507184301 17 225 0.0 0.0 0.00 0.00 0.00 74 1014.6
20260507184201 17 270 0.0 3.2 0.00 0.00 0.00 74 1014.7
20260507184101 17 270 0.0 0.0 0.00 0.00 0.00 74 1014.9
20260507184001 17 225 0.0 0.0 0.00 0.00 0.00 74 1014.7
20260507183902 17 225 0.0 0.0 0.00 0.00 0.00 73 1014.7
20260507183802 17 225 0.0 0.0 0.00 0.00 0.00 73 1014.8
20260507183702 17 112 0.0 3.2 0.00 0.00 0.00 73 1014.7
20260507183602 17 112 0.0 0.0 0.00 0.00 0.00 73 1014.6
20260507183501 17 90 0.0 0.0 0.00 0.00 0.00 73 1014.6
20260507183401 17 90 0.0 0.0 0.00 0.00 0.00 72 1014.6
20260507183301 17 90 1.6 3.2 0.00 0.00 0.00 72 1014.6
20260507183201 17 68 0.0 0.0 0.00 0.00 0.00 72 1014.5
20260507183101 17 68 1.6 3.2 0.00 0.00 0.00 72 1014.5
20260507183002 17 158 0.0 0.0 0.00 0.00 0.00 72 1014.4
20260507182902 17 202 0.0 0.0 0.00 0.00 0.00 71 1014.5
20260507182801 17 225 0.0 3.2 0.00 0.00 0.00 71 1014.3
20260507182701 17 68 0.0 0.0 0.00 0.00 0.00 71 1014.5
20260507182601 17 68 0.0 0.0 0.00 0.00 0.00 70 1014.4
20260507182502 17 90 0.0 0.0 0.00 0.00 0.00 70 1014.2
20260507182401 17 112 0.0 3.2 0.00 0.00 0.00 70 1014.3
20260507182306 17 68 1.6 3.2 0.00 0.00 0.00 70 1014.4
20260507182202 17 225 0.0 3.2 0.00 0.00 0.00 70 1014.2
20260507182101 17 68 3.2 3.2 0.00 0.00 0.00 69 1014.2
20260507182001 17 270 0.0 3.2 0.00 0.00 0.00 69 1014.4
20260507181901 18 68 1.6 3.2 0.00 0.00 0.00 69 1014.4
20260507181801 18 0 0.0 3.2 0.00 0.00 0.00 68 1014.5
20260507181701 18 270 3.2 6.4 0.00 0.00 0.00 68 1014.2
20260507181602 18 225 0.0 3.2 0.00 0.00 0.00 68 1014.1
20260507181502 18 292 1.6 3.2 0.00 0.00 0.00 68 1014.1
20260507181402 18 270 4.8 11.3 0.00 0.00 0.00 68 1014.3
20260507181302 18 135 3.2 3.2 0.00 0.00 0.00 67 1014.4
20260507181202 18 292 3.2 6.4 0.00 0.00 0.00 67 1014.2
20260507181102 18 292 8.0 12.9 0.00 0.00 0.00 67 1014.1
20260507181002 18 270 3.2 6.4 0.00 0.00 0.00 67 1014.2
20260507180902 18 68 1.6 3.2 0.00 0.00 0.00 66 1014.2
20260507180802 18 68 1.6 3.2 0.00 0.00 0.00 66 1014.2
20260507180701 18 45 4.8 11.3 0.00 0.00 0.00 66 1014.3
20260507180601 18 270 4.8 11.3 0.00 0.00 0.00 66 1014.3
20260507180502 18 292 3.2 9.7 0.00 0.00 0.00 66 1014.5
20260507180401 18 292 3.2 11.3 0.00 0.00 0.00 66 1014.3
20260507180302 18 270 3.2 9.7 0.00 0.00 0.00 66 1014.3
20260507180202 18 112 0.0 3.2 0.00 0.00 0.00 65 1014.4
20260507180002 18 68 3.2 6.4 0.00 0.00 0.00 65 1014.3
20260507175901 19 248 3.2 6.4 0.00 0.00 0.00 65 1014.6
20260507175801 19 22 1.6 6.4 0.00 0.00 0.00 64 1014.4
20260507175701 19 248 3.2 6.4 0.00 0.00 0.00 64 1014.3
20260507175601 19 270 3.2 6.4 0.00 0.00 0.00 64 1014.2
20260507175501 19 22 1.6 6.4 0.00 0.00 0.00 64 1014.4
20260507175401 19 338 1.6 3.2 0.00 0.00 0.00 64 1014.3
20260507175301 19 90 1.6 3.2 0.00 0.00 0.00 64 1014.6
20260507175201 19 68 1.6 3.2 0.00 0.00 0.00 64 1014.5
20260507175101 19 68 0.0 3.2 0.00 0.00 0.00 64 1014.5
20260507175001 19 68 3.2 6.4 0.00 0.00 0.00 63 1014.4
20260507174902 19 292 3.2 3.2 0.00 0.00 0.00 63 1014.5
20260507174802 19 135 1.6 9.7 0.00 0.00 0.00 63 1014.4
20260507174701 19 135 1.6 9.7 0.00 0.00 0.00 63 1014.1
20260507174601 19 112 1.6 6.4 0.00 0.00 0.00 62 1014.5
20260507174502 19 338 1.6 3.2 0.00 0.00 0.00 62 1014.2
20260507174401 19 90 3.2 6.4 0.00 0.00 0.00 62 1014.3
20260507174302 19 112 1.6 3.2 0.00 0.00 0.00 62 1014.3
20260507174201 20 68 4.8 6.4 0.00 0.00 0.00 62 1014.4
20260507174101 20 270 6.4 14.5 0.00 0.00 0.00 61 1014.4
20260507174001 20 68 4.8 11.3 0.00 0.00 0.00 61 1014.3
20260507173901 20 90 0.0 3.2 0.00 0.00 0.00 61 1014.5
20260507173800 20 315 1.6 6.4 0.00 0.00 0.00 61 1014.4
20260507173702 20 292 1.6 3.2 0.00 0.00 0.00 61 1014.4
20260507173601 20 68 1.6 3.2 0.00 0.00 0.00 61 1014.2
20260507173501 20 112 3.2 6.4 0.00 0.00 0.00 61 1014.3
20260507173401 20 112 3.2 6.4 0.00 0.00 0.00 60 1014.4
20260507173301 20 292 1.6 6.4 0.00 0.00 0.00 60 1014.3
20260507173201 20 68 1.6 6.4 0.00 0.00 0.00 60 1014.4
20260507173102 20 90 6.4 14.5 0.00 0.00 0.00 60 1014.3
20260507173001 20 45 1.6 3.2 0.00 0.00 0.00 59 1014.3
20260507172902 20 292 3.2 3.2 0.00 0.00 0.00 59 1014.3
20260507172802 20 202 6.4 14.5 0.00 0.00 0.00 59 1014.1
20260507172702 20 292 3.2 14.5 0.00 0.00 0.00 59 1014.4
20260507172602 20 338 0.0 3.2 0.00 0.00 0.00 58 1014.2
20260507172502 20 292 3.2 9.7 0.00 0.00 0.00 58 1014.2
20260507172402 20 112 1.6 3.2 0.00 0.00 0.00 58 1014.4
20260507172301 20 90 1.6 3.2 0.00 0.00 0.00 58 1014.3
20260507172202 20 270 3.2 11.3 0.00 0.00 0.00 57 1014.3
20260507172102 20 90 0.0 0.0 0.00 0.00 0.00 58 1014.2
20260507172002 20 22 1.6 3.2 0.00 0.00 0.00 58 1014.3
20260507171901 20 90 3.2 3.2 0.00 0.00 0.00 58 1014.2
20260507171801 20 292 6.4 14.5 0.00 0.00 0.00 57 1014.2
20260507171701 21 135 1.6 3.2 0.00 0.00 0.00 58 1014.3
20260507171601 21 135 1.6 3.2 0.00 0.00 0.00 58 1014.4
20260507171501 20 135 1.6 3.2 0.00 0.00 0.00 57 1014.3
20260507171401 21 90 3.2 6.4 0.00 0.00 0.00 57 1014.0
20260507171302 21 248 1.6 3.2 0.00 0.00 0.00 57 1014.2
20260507171201 21 112 0.0 3.2 0.00 0.00 0.00 57 1014.0
20260507171101 21 68 3.2 3.2 0.00 0.00 0.00 56 1014.2
20260507171001 21 292 3.2 3.2 0.00 0.00 0.00 56 1014.2
20260507170901 21 45 1.6 3.2 0.00 0.00 0.00 56 1014.3
20260507170801 21 248 1.6 6.4 0.00 0.00 0.00 55 1014.2
20260507170700 21 45 1.6 3.2 0.00 0.00 0.00 55 1014.2
20260507170601 21 202 3.2 3.2 0.00 0.00 0.00 54 1014.1
20260507170501 21 292 3.2 6.4 0.00 0.00 0.00 53 1014.1
20260507170401 21 112 3.2 3.2 0.00 0.00 0.00 53 1014.2
20260507170301 21 90 3.2 3.2 0.00 0.00 0.00 52 1013.9
20260507170201 21 270 3.2 9.7 0.00 0.00 0.00 52 1014.0
20260507170001 21 90 3.2 6.4 0.00 0.00 0.00 51 1014.3
20260507165902 21 68 3.2 6.4 0.00 0.00 0.00 51 1014.1
20260507165802 21 90 1.6 6.4 0.00 0.00 0.00 51 1014.0
20260507165702 21 180 3.2 3.2 0.00 0.00 0.00 52 1014.2
20260507165601 21 270 3.2 6.4 0.00 0.00 0.00 51 1014.0
20260507165501 21 292 3.2 6.4 0.00 0.00 0.00 51 1014.4
20260507165401 21 90 3.2 9.7 0.00 0.00 0.00 50 1014.0
20260507165301 21 45 4.8 9.7 0.00 0.00 0.00 50 1014.1
20260507165202 21 270 4.8 11.3 0.00 0.00 0.00 50 1014.2
20260507165102 21 248 3.2 6.4 0.00 0.00 0.00 50 1014.3
20260507165001 21 248 6.4 11.3 0.00 0.00 0.00 50 1014.3
20260507164901 21 248 6.4 11.3 0.00 0.00 0.00 50 1014.2
20260507164801 21 270 8.0 12.9 0.00 0.00 0.00 50 1014.2
20260507164701 21 292 3.2 9.7 0.00 0.00 0.00 51 1014.2
20260507164601 21 68 3.2 6.4 0.00 0.00 0.00 51 1014.4
20260507164501 21 292 1.6 3.2 0.00 0.00 0.00 51 1014.3
20260507164400 21 90 0.0 3.2 0.00 0.00 0.00 51 1014.3
20260507164302 21 112 3.2 6.4 0.00 0.00 0.00 51 1014.1
20260507164202 21 270 9.7 14.5 0.00 0.00 0.00 50 1014.3
20260507164102 21 90 3.2 11.3 0.00 0.00 0.00 52 1014.5
20260507164001 21 315 3.2 6.4 0.00 0.00 0.00 52 1014.4
20260507163902 21 45 0.0 3.2 0.00 0.00 0.00 52 1014.4
20260507163802 21 270 3.2 6.4 0.00 0.00 0.00 52 1014.1
20260507163701 21 270 4.8 11.3 0.00 0.00 0.00 52 1014.2
20260507163602 21 90 1.6 3.2 0.00 0.00 0.00 52 1014.4
20260507163502 21 45 3.2 3.2 0.00 0.00 0.00 52 1014.4
20260507163402 21 248 3.2 6.4 0.00 0.00 0.00 51 1014.2
20260507163302 22 270 6.4 12.9 0.00 0.00 0.00 51 1014.2
20260507163202 22 292 6.4 14.5 0.00 0.00 0.00 51 1014.3
20260507163101 22 292 3.2 6.4 0.00 0.00 0.00 51 1014.3
20260507163002 22 90 1.6 3.2 0.00 0.00 0.00 50 1014.3
20260507162901 22 45 4.8 14.5 0.00 0.00 0.00 50 1014.3
20260507162801 22 338 3.2 9.7 0.00 0.00 0.00 51 1014.2
20260507162702 22 315 3.2 6.4 0.00 0.00 0.00 51 1014.2
20260507162601 22 90 1.6 3.2 0.00 0.00 0.00 50 1014.4
20260507162502 22 90 1.6 3.2 0.00 0.00 0.00 50 1014.2
20260507162401 22 90 3.2 6.4 0.00 0.00 0.00 50 1014.4
20260507162302 22 292 3.2 3.2 0.00 0.00 0.00 50 1014.3
20260507162201 22 68 1.6 3.2 0.00 0.00 0.00 50 1014.4
20260507162101 22 338 1.6 3.2 0.00 0.00 0.00 51 1014.4
20260507162001 22 90 1.6 3.2 0.00 0.00 0.00 50 1014.4
20260507161902 22 90 1.6 3.2 0.00 0.00 0.00 51 1014.4
20260507161802 22 68 1.6 3.2 0.00 0.00 0.00 51 1014.5
20260507161702 22 112 1.6 3.2 0.00 0.00 0.00 50 1014.5
20260507161602 22 90 3.2 6.4 0.00 0.00 0.00 51 1014.5
20260507161502 22 292 3.2 12.9 0.00 0.00 0.00 50 1014.5
20260507161402 22 90 0.0 0.0 0.00 0.00 0.00 50 1014.4
20260507161302 22 68 1.6 3.2 0.00 0.00 0.00 48 1014.3
20260507161203 22 90 0.0 3.2 0.00 0.00 0.00 48 1014.3
20260507161102 22 158 1.6 3.2 0.00 0.00 0.00 48 1014.5
20260507161002 22 90 1.6 3.2 0.00 0.00 0.00 48 1014.4
20260507160901 22 45 1.6 3.2 0.00 0.00 0.00 49 1014.5
20260507160801 22 45 3.2 6.4 0.00 0.00 0.00 49 1014.6
20260507160701 22 68 3.2 6.4 0.00 0.00 0.00 49 1014.2
20260507160601 22 225 1.6 3.2 0.00 0.00 0.00 49 1014.5
20260507160502 22 158 1.6 3.2 0.00 0.00 0.00 49 1014.4
20260507160402 22 90 1.6 3.2 0.00 0.00 0.00 50 1014.4
20260507160302 22 90 1.6 3.2 0.00 0.00 0.00 50 1014.4
20260507160201 22 90 3.2 11.3 0.00 0.00 0.00 49 1014.3
20260507160101 22 292 1.6 9.7 0.00 0.00 0.00 50 1014.4
20260507160001 22 68 1.6 3.2 0.00 0.00 0.00 50 1014.4
20260507155901 22 90 1.6 3.2 0.00 0.00 0.00 50 1014.4
20260507155801 22 68 1.6 3.2 0.00 0.00 0.00 50 1014.2
20260507155701 22 90 3.2 3.2 0.00 0.00 0.00 50 1014.4
20260507155601 22 225 1.6 3.2 0.00 0.00 0.00 50 1014.4
20260507155501 22 248 1.6 3.2 0.00 0.00 0.00 50 1014.3
20260507155401 22 202 0.0 3.2 0.00 0.00 0.00 49 1014.3
20260507155301 22 22 3.2 3.2 0.00 0.00 0.00 50 1014.3
20260507155201 22 135 3.2 3.2 0.00 0.00 0.00 50 1014.4
20260507155102 22 68 1.6 3.2 0.00 0.00 0.00 50 1014.4
20260507155001 22 180 1.6 3.2 0.00 0.00 0.00 50 1014.3
20260507154902 22 90 1.6 3.2 0.00 0.00 0.00 50 1014.4
20260507154802 22 135 1.6 3.2 0.00 0.00 0.00 50 1014.2
20260507154702 22 45 3.2 6.4 0.00 0.00 0.00 50 1014.2
20260507154602 22 315 3.2 6.4 0.00 0.00 0.00 50 1014.4
20260507154502 22 90 3.2 3.2 0.00 0.00 0.00 50 1014.3
20260507154402 22 90 3.2 3.2 0.00 0.00 0.00 50 1014.3
20260507154302 22 90 3.2 3.2 0.00 0.00 0.00 50 1014.3
20260507154202 22 68 0.0 3.2 0.00 0.00 0.00 50 1014.2
20260507154102 22 45 1.6 3.2 0.00 0.00 0.00 50 1014.2
20260507154002 22 68 1.6 6.4 0.00 0.00 0.00 51 1014.4
20260507153902 22 22 1.6 3.2 0.00 0.00 0.00 51 1014.3
20260507153801 22 68 1.6 3.2 0.00 0.00 0.00 50 1014.3
20260507153701 22 135 0.0 3.2 0.00 0.00 0.00 50 1014.5
20260507153601 22 90 1.6 3.2 0.00 0.00 0.00 50 1014.3
20260507153501 22 68 1.6 3.2 0.00 0.00 0.00 50 1014.3
20260507153401 22 315 3.2 6.4 0.00 0.00 0.00 50 1014.4
20260507153302 22 90 3.2 3.2 0.00 0.00 0.00 49 1014.3
20260507153201 23 90 3.2 6.4 0.00 0.00 0.00 49 1014.4
20260507153101 23 248 0.0 3.2 0.00 0.00 0.00 49 1014.3
20260507153001 23 112 1.6 3.2 0.00 0.00 0.00 48 1014.4
20260507152901 23 90 1.6 3.2 0.00 0.00 0.00 47 1014.6
20260507152802 23 68 1.6 3.2 0.00 0.00 0.00 46 1014.2
20260507152702 23 292 3.2 6.4 0.00 0.00 0.00 45 1014.2
20260507152602 23 68 1.6 6.4 0.00 0.00 0.00 44 1014.4
20260507152502 23 90 1.6 3.2 0.00 0.00 0.00 44 1014.3
20260507152402 23 68 1.6 3.2 0.00 0.00 0.00 44 1014.5
20260507152305 23 68 3.2 3.2 0.00 0.00 0.00 44 1014.4
20260507152202 23 90 4.8 12.9 0.00 0.00 0.00 44 1014.1
20260507152102 23 270 3.2 6.4 0.00 0.00 0.00 44 1014.3
20260507152002 23 158 0.0 3.2 0.00 0.00 0.00 46 1014.4
20260507151902 23 90 3.2 3.2 0.00 0.00 0.00 46 1014.4
20260507151801 23 292 0.0 3.2 0.00 0.00 0.00 44 1014.4
20260507151701 23 112 1.6 3.2 0.00 0.00 0.00 43 1014.4
20260507151601 23 90 0.0 3.2 0.00 0.00 0.00 43 1014.4
20260507151502 22 0 0.0 0.0 0.00 0.00 0.00 44 1014.3
20260507151401 22 68 1.6 3.2 0.00 0.00 0.00 43 1014.5
20260507151301 22 112 0.0 3.2 0.00 0.00 0.00 44 1014.3
20260507151201 22 225 1.6 3.2 0.00 0.00 0.00 44 1014.3
20260507151101 22 202 1.6 6.4 0.00 0.00 0.00 45 1014.3
20260507151001 22 292 3.2 6.4 0.00 0.00 0.00 44 1014.3
20260507150902 22 90 6.4 14.5 0.00 0.00 0.00 44 1014.1
20260507150802 22 270 8.0 12.9 0.00 0.00 0.00 44 1014.4
20260507150702 22 292 3.2 11.3 0.00 0.00 0.00 45 1014.2
20260507150602 22 248 3.2 6.4 0.00 0.00 0.00 46 1014.5
20260507150502 22 112 1.6 3.2 0.00 0.00 0.00 46 1014.5
20260507150402 22 68 1.6 6.4 0.00 0.00 0.00 45 1014.5
20260507150302 21 315 9.7 14.5 0.00 0.00 0.00 45 1014.3
20260507150202 21 292 9.7 14.5 0.00 0.00 0.00 44 1014.4
20260507150002 22 292 6.4 11.3 0.00 0.00 0.00 45 1014.4
20260507145901 22 22 0.0 3.2 0.00 0.00 0.00 45 1014.5
20260507145801 21 270 8.0 12.9 0.00 0.00 0.00 44 1014.6
20260507145702 22 292 16.1 20.9 0.00 0.00 0.00 43 1014.6
20260507145602 23 270 9.7 14.5 0.00 0.00 0.00 43 1014.5
20260507145501 23 270 9.7 14.5 0.00 0.00 0.00 43 1014.5
20260507145402 23 270 4.8 9.7 0.00 0.00 0.00 43 1014.4
20260507145301 23 68 4.8 11.3 0.00 0.00 0.00 44 1014.5
20260507145202 23 68 3.2 11.3 0.00 0.00 0.00 45 1014.6
20260507145102 23 292 3.2 6.4 0.00 0.00 0.00 45 1014.5
20260507145002 22 225 1.6 3.2 0.00 0.00 0.00 45 1014.3
20260507144902 22 68 3.2 6.4 0.00 0.00 0.00 45 1014.4
20260507144800 22 68 1.6 3.2 0.00 0.00 0.00 46 1014.6
20260507144702 22 202 1.6 3.2 0.00 0.00 0.00 46 1014.5
20260507144602 22 68 4.8 11.3 0.00 0.00 0.00 45 1014.5
20260507144501 22 68 4.8 11.3 0.00 0.00 0.00 45 1014.3
20260507144401 22 292 4.8 12.9 0.00 0.00 0.00 45 1014.8
20260507144301 22 68 3.2 11.3 0.00 0.00 0.00 45 1014.5
20260507144201 22 90 1.6 3.2 0.00 0.00 0.00 46 1014.6
20260507144101 22 90 1.6 3.2 0.00 0.00 0.00 46 1014.8
20260507144001 22 90 1.6 6.4 0.00 0.00 0.00 46 1014.6
20260507143901 22 248 6.4 11.3 0.00 0.00 0.00 45 1014.6
20260507143802 22 270 6.4 9.7 0.00 0.00 0.00 46 1014.6
20260507143701 22 270 6.4 11.3 0.00 0.00 0.00 45 1014.6
20260507143602 22 270 6.4 14.5 0.00 0.00 0.00 46 1014.8
20260507143502 22 270 6.4 12.9 0.00 0.00 0.00 45 1014.5
20260507143401 22 292 6.4 12.9 0.00 0.00 0.00 46 1014.6
20260507143302 22 248 1.6 3.2 0.00 0.00 0.00 42 1014.6
20260507143201 22 248 1.6 3.2 0.00 0.00 0.00 42 1014.7
20260507143102 22 315 3.2 6.4 0.00 0.00 0.00 43 1014.9
20260507143002 22 248 3.2 6.4 0.00 0.00 0.00 43 1014.6
20260507142902 22 248 6.4 9.7 0.00 0.00 0.00 44 1014.8
20260507142801 22 292 8.0 11.3 0.00 0.00 0.00 44 1014.6
20260507142701 22 270 4.8 11.3 0.00 0.00 0.00 44 1014.8
20260507142602 22 202 3.2 6.4 0.00 0.00 0.00 46 1014.7
20260507142501 22 248 3.2 6.4 0.00 0.00 0.00 46 1014.7
20260507142401 21 315 3.2 6.4 0.00 0.00 0.00 46 1014.9
20260507142301 21 248 4.8 6.4 0.00 0.00 0.00 45 1014.6
20260507142201 21 270 12.9 17.7 0.00 0.00 0.00 44 1014.8
20260507142101 22 270 12.9 17.7 0.00 0.00 0.00 44 1014.7
20260507142002 22 270 4.8 14.5 0.00 0.00 0.00 44 1014.6
20260507141901 22 68 3.2 6.4 0.00 0.00 0.00 47 1014.7
20260507141803 22 112 6.4 14.5 0.00 0.00 0.00 46 1014.8
20260507141702 22 270 1.6 3.2 0.00 0.00 0.00 46 1014.7
20260507141602 22 90 3.2 3.2 0.00 0.00 0.00 47 1014.7
20260507141501 22 45 6.4 14.5 0.00 0.00 0.00 46 1014.7
20260507141401 22 270 6.4 11.3 0.00 0.00 0.00 45 1014.8
20260507141302 22 270 9.7 17.7 0.00 0.00 0.00 46 1014.9
20260507141202 22 315 9.7 17.7 0.00 0.00 0.00 45 1014.9
20260507141102 22 338 8.0 12.9 0.00 0.00 0.00 46 1014.7
20260507141001 22 292 12.9 20.9 0.00 0.00 0.00 45 1014.9
20260507140901 22 292 11.3 20.9 0.00 0.00 0.00 44 1014.9
20260507140801 23 225 3.2 6.4 0.00 0.00 0.00 47 1015.1
20260507140701 23 225 3.2 6.4 0.00 0.00 0.00 47 1014.9
20260507140601 23 45 4.8 9.7 0.00 0.00 0.00 47 1015.0
20260507140502 22 248 4.8 6.4 0.00 0.00 0.00 47 1014.8
20260507140401 22 248 3.2 6.4 0.00 0.00 0.00 46 1015.0
20260507140301 22 270 3.2 6.4 0.00 0.00 0.00 45 1014.9
20260507140202 22 270 3.2 6.4 0.00 0.00 0.00 45 1015.0
20260507140001 22 225 3.2 9.7 0.00 0.00 0.00 47 1014.9
20260507135901 22 292 8.0 11.3 0.00 0.00 0.00 46 1015.1
20260507135801 22 270 8.0 14.5 0.00 0.00 0.00 45 1014.8
20260507135701 22 292 3.2 6.4 0.00 0.00 0.00 46 1015.0
20260507135601 22 270 6.4 12.9 0.00 0.00 0.00 45 1015.1
20260507135502 22 292 4.8 12.9 0.00 0.00 0.00 46 1015.0
20260507135401 22 68 4.8 11.3 0.00 0.00 0.00 47 1015.0
20260507135301 22 292 3.2 9.7 0.00 0.00 0.00 48 1015.0
20260507135201 21 292 11.3 14.5 0.00 0.00 0.00 48 1015.0
20260507135101 21 292 11.3 14.5 0.00 0.00 0.00 48 1015.1
20260507135001 21 292 9.7 12.9 0.00 0.00 0.00 49 1015.1
20260507134902 21 292 6.4 11.3 0.00 0.00 0.00 49 1015.0
20260507134801 21 180 17.7 22.5 0.00 0.00 0.00 47 1015.0
20260507134701 21 292 12.9 17.7 0.00 0.00 0.00 47 1015.1
20260507134602 21 270 12.9 17.7 0.00 0.00 0.00 45 1015.1
20260507134501 22 270 14.5 17.7 0.00 0.00 0.00 47 1015.1
20260507134401 22 292 4.8 12.9 0.00 0.00 0.00 47 1015.2
20260507134301 22 68 6.4 14.5 0.00 0.00 0.00 48 1015.1
20260507134202 22 292 3.2 6.4 0.00 0.00 0.00 49 1015.2
20260507134102 21 68 1.6 3.2 0.00 0.00 0.00 49 1015.0
20260507134002 21 270 1.6 3.2 0.00 0.00 0.00 50 1015.0
20260507133902 21 270 6.4 9.7 0.00 0.00 0.00 50 1015.2
20260507133801 21 292 6.4 12.9 0.00 0.00 0.00 48 1015.1
20260507133700 21 248 6.4 12.9 0.00 0.00 0.00 48 1015.1
20260507133601 21 270 9.7 14.5 0.00 0.00 0.00 49 1015.1
20260507133501 21 292 14.5 17.7 0.00 0.00 0.00 47 1015.1
20260507133401 21 292 12.9 20.9 0.00 0.00 0.00 50 1015.2
20260507133301 21 248 12.9 17.7 0.00 0.00 0.00 49 1015.3
20260507133201 21 315 12.9 14.5 0.00 0.00 0.00 50 1015.2
20260507133101 21 248 8.0 14.5 0.00 0.00 0.00 49 1015.2
20260507133001 21 270 6.4 9.7 0.00 0.00 0.00 46 1015.0
20260507132902 21 270 12.9 17.7 0.00 0.00 0.00 45 1015.2
20260507132802 21 270 12.9 17.7 0.00 0.00 0.00 47 1015.2
20260507132702 21 270 17.7 25.7 0.00 0.00 0.00 47 1015.1
20260507132602 21 270 11.3 22.5 0.00 0.00 0.00 47 1015.0
20260507132502 21 292 6.4 14.5 0.00 0.00 0.00 47 1015.2
20260507132402 21 292 8.0 14.5 0.00 0.00 0.00 46 1015.1
20260507132306 21 292 11.3 17.7 0.00 0.00 0.00 47 1015.0
20260507132202 21 270 11.3 17.7 0.00 0.00 0.00 47 1015.0
20260507132102 21 270 4.8 6.4 0.00 0.00 0.00 49 1015.0
20260507132002 21 292 9.7 14.5 0.00 0.00 0.00 46 1015.3
20260507131901 21 292 9.7 14.5 0.00 0.00 0.00 46 1015.1
20260507131801 21 292 9.7 14.5 0.00 0.00 0.00 45 1015.1
20260507131701 21 248 8.0 12.9 0.00 0.00 0.00 45 1015.3
20260507131602 21 270 9.7 12.9 0.00 0.00 0.00 43 1015.3
20260507131502 21 270 12.9 17.7 0.00 0.00 0.00 43 1015.1
20260507131401 22 270 9.7 17.7 0.00 0.00 0.00 43 1014.9
20260507131301 22 292 8.0 12.9 0.00 0.00 0.00 42 1015.2
20260507131201 22 292 12.9 17.7 0.00 0.00 0.00 40 1015.3
20260507131101 22 292 11.3 17.7 0.00 0.00 0.00 42 1015.2
20260507131001 22 292 3.2 12.9 0.00 0.00 0.00 43 1015.3
20260507130902 22 90 3.2 3.2 0.00 0.00 0.00 46 1015.1
20260507130802 21 248 3.2 6.4 0.00 0.00 0.00 46 1015.2
20260507130702 21 68 6.4 12.9 0.00 0.00 0.00 46 1015.1
20260507130602 21 315 8.0 12.9 0.00 0.00 0.00 45 1015.0
20260507130502 21 270 6.4 12.9 0.00 0.00 0.00 43 1015.2
20260507130402 21 270 11.3 12.9 0.00 0.00 0.00 42 1015.3
20260507130302 21 270 11.3 12.9 0.00 0.00 0.00 42 1015.3
20260507130202 21 225 6.4 11.3 0.00 0.00 0.00 46 1015.2
20260507130001 21 248 9.7 14.5 0.00 0.00 0.00 45 1015.0
20260507125902 21 292 11.3 14.5 0.00 0.00 0.00 44 1015.0
20260507125801 22 270 8.0 17.7 0.00 0.00 0.00 44 1015.1
20260507125701 22 292 3.2 6.4 0.00 0.00 0.00 45 1015.3
20260507125601 22 292 4.8 6.4 0.00 0.00 0.00 44 1015.2
20260507125502 22 292 6.4 9.7 0.00 0.00 0.00 45 1015.1
20260507125401 21 292 8.0 12.9 0.00 0.00 0.00 43 1015.1
20260507125302 21 292 6.4 11.3 0.00 0.00 0.00 44 1015.3
20260507125201 21 0 4.8 11.3 0.00 0.00 0.00 48 1015.2
20260507125101 21 90 9.7 17.7 0.00 0.00 0.00 47 1015.1
20260507125002 21 292 6.4 11.3 0.00 0.00 0.00 48 1015.2
20260507124901 21 270 9.7 12.9 0.00 0.03 0.00 49 1015.1
20260507124801 21 270 14.5 24.1 0.00 0.05 0.00 46 1015.1
20260507124702 21 270 11.3 17.7 0.00 0.08 0.00 46 1015.0
20260507124601 21 248 1.6 3.2 0.00 0.08 0.00 50 1015.2
20260507124501 21 45 3.2 6.4 0.00 0.08 0.00 50 1015.4
20260507124401 21 270 6.4 9.7 0.00 0.08 0.00 48 1015.3
20260507124301 21 292 11.3 14.5 0.00 0.10 0.00 48 1015.2
20260507124201 21 292 8.0 11.3 0.00 0.13 0.00 50 1015.2
20260507124101 21 270 11.3 12.9 0.00 0.18 0.00 49 1015.2
20260507124001 21 202 6.4 11.3 0.00 0.20 0.00 49 1015.3
20260507123902 21 248 6.4 11.3 0.00 0.25 0.00 48 1015.3
20260507123802 21 248 6.4 9.7 0.00 0.43 0.00 48 1015.1
20260507123701 21 270 9.7 12.9 0.00 0.43 0.00 48 1015.4
20260507123602 21 292 11.3 14.5 0.00 0.53 0.00 48 1015.0
20260507123502 21 270 6.4 11.3 0.00 0.64 0.00 49 1015.2
20260507123401 22 270 4.8 11.3 0.00 0.84 0.00 46 1015.1
20260507123312 22 90 1.6 3.2 0.00 1.02 0.00 50 1015.2
20260507123202 21 270 3.2 9.7 0.00 1.02 0.00 50 1015.3
20260507123101 21 112 0.0 3.2 0.00 1.04 0.00 50 1015.2
20260507123002 21 68 8.0 14.5 0.00 1.04 0.00 49 1015.3
20260507122901 21 292 11.3 17.7 0.00 1.07 0.00 48 1015.1
20260507122802 21 270 8.0 17.7 0.00 1.09 0.00 51 1015.0
20260507122701 21 270 12.9 17.7 0.00 1.09 0.00 49 1015.4
20260507122601 21 270 8.0 12.9 0.00 1.19 0.00 51 1015.1
20260507122501 21 292 8.0 12.9 0.00 1.19 0.00 51 1015.1
20260507122401 21 270 6.4 12.9 0.00 1.19 0.00 51 1015.1
20260507122306 21 292 8.0 11.3 0.00 1.22 0.00 50 1015.1
20260507122201 21 270 6.4 11.3 0.00 1.22 0.00 51 1015.3
20260507122101 21 292 8.0 14.5 0.00 1.37 0.00 50 1015.1
20260507122001 21 22 3.2 6.4 0.00 1.40 0.00 52 1015.3
20260507121901 21 270 1.6 6.4 0.00 1.42 0.00 54 1015.3
20260507121802 21 292 11.3 17.7 0.00 1.52 0.00 52 1015.2
20260507121702 21 292 9.7 12.9 0.00 1.73 0.00 54 1015.3
20260507121602 21 248 11.3 14.5 0.00 1.88 0.00 55 1015.1
20260507121501 21 248 12.9 14.5 0.00 2.01 0.00 53 1015.3
20260507121402 21 248 9.7 14.5 0.00 2.08 0.00 52 1015.3
20260507121302 21 292 8.0 12.9 0.00 2.21 0.00 51 1015.2
20260507121202 21 292 8.0 12.9 0.00 2.21 0.00 51 1015.1
20260507121102 22 248 6.4 9.7 0.00 2.21 0.00 52 1015.4
20260507121002 22 270 8.0 14.5 0.00 2.24 0.00 50 1015.1
20260507120902 22 292 1.6 3.2 0.00 2.26 0.00 48 1015.2
20260507120801 22 248 3.2 6.4 0.00 2.29 0.00 47 1015.1
20260507120701 22 292 1.6 6.4 0.00 2.29 0.00 48 1015.2
20260507120601 22 45 3.2 6.4 0.00 2.44 0.00 50 1015.1
20260507120501 22 68 1.6 3.2 0.00 2.44 0.00 51 1015.2
20260507120401 22 338 1.6 3.2 0.00 2.44 0.00 50 1015.2
20260507120301 22 338 1.6 3.2 0.00 2.44 0.00 50 1015.3
20260507120201 21 68 3.2 11.3 0.00 2.44 0.00 53 1015.4
20260507120001 21 292 4.8 11.3 0.00 2.44 0.00 52 1015.4
20260507115901 21 45 4.8 9.7 0.00 2.49 0.00 54 1015.4
20260507115801 21 248 3.2 6.4 0.00 2.49 0.00 55 1015.3
20260507115701 20 270 4.8 6.4 0.00 2.51 0.00 54 1015.4
20260507115601 20 292 6.4 9.7 0.00 2.51 0.00 54 1015.2
20260507115501 20 270 6.4 11.3 0.00 2.51 0.00 53 1015.1
20260507115401 20 270 12.9 17.7 0.00 2.51 0.00 52 1015.3
20260507115300 21 248 11.3 17.7 0.00 2.51 0.00 53 1015.4
20260507115201 21 180 6.4 9.7 0.00 2.51 0.00 53 1015.3
20260507115102 20 270 6.4 11.3 0.00 2.51 0.00 52 1015.4
20260507115000 20 270 12.9 20.9 0.00 2.51 0.00 49 1015.4
20260507114902 21 292 8.0 14.5 0.00 2.51 0.00 52 1015.3
20260507114801 21 292 9.7 14.5 0.00 2.51 0.00 51 1015.5
20260507114701 21 292 9.7 14.5 0.00 2.51 0.00 52 1015.5
20260507114602 21 270 12.9 17.7 0.00 2.51 0.00 52 1015.5
20260507114501 21 270 8.0 11.3 0.00 2.51 0.00 52 1015.4
20260507114401 21 292 1.6 3.2 0.00 2.51 0.00 54 1015.4
20260507114301 21 292 4.8 11.3 0.00 2.51 0.00 53 1015.4
20260507114201 21 270 6.4 9.7 0.00 2.51 0.00 57 1015.3
20260507114101 21 270 8.0 11.3 0.00 2.51 0.00 56 1015.1
20260507114001 21 270 9.7 14.5 0.00 2.51 0.00 55 1015.3
20260507113902 21 270 9.7 14.5 0.00 2.51 0.00 55 1015.4
20260507113801 21 248 9.7 12.9 0.00 2.51 0.00 57 1015.4
20260507113702 21 248 8.0 12.9 0.00 2.51 0.00 55 1015.5
20260507113601 21 248 6.4 9.7 0.00 2.51 0.00 56 1015.3
20260507113501 21 270 8.0 12.9 0.00 2.51 0.00 55 1015.5
20260507113401 21 292 4.8 6.4 0.00 2.51 0.00 55 1015.5
20260507113301 20 270 3.2 6.4 0.00 2.51 0.00 52 1015.5
20260507113202 20 315 6.4 9.7 0.00 2.51 0.00 52 1015.4
20260507113102 20 248 6.4 9.7 0.00 2.51 0.00 49 1015.5
20260507113001 20 270 9.7 12.9 0.00 2.51 0.00 48 1015.5
20260507112902 21 270 9.7 14.5 0.00 2.51 0.00 51 1015.5
20260507112801 21 292 9.7 14.5 0.00 2.51 0.00 51 1015.5
20260507112702 21 270 9.7 14.5 0.00 2.51 0.00 52 1015.6
20260507112602 21 270 11.3 17.7 0.00 2.51 0.00 51 1015.4
20260507112502 22 292 8.0 14.5 0.00 2.51 0.00 53 1015.5
20260507112401 22 202 3.2 9.7 0.00 2.51 0.00 52 1015.6
20260507112305 22 270 3.2 6.4 0.00 2.51 0.00 53 1015.2
20260507112202 22 225 6.4 9.7 0.00 2.51 0.00 51 1015.5
20260507112102 22 248 1.6 3.2 0.00 2.51 0.00 54 1015.5
20260507112002 22 225 3.2 6.4 0.00 2.51 0.00 55 1015.5
20260507111901 22 45 1.6 3.2 0.00 2.51 0.00 55 1015.6
20260507111801 22 112 1.6 3.2 0.00 2.51 0.00 55 1015.5
20260507111701 22 68 3.2 3.2 0.00 2.51 0.00 56 1015.6
20260507111602 22 45 1.6 3.2 0.00 2.51 0.00 57 1015.5
20260507111503 22 68 3.2 3.2 0.00 2.51 0.00 57 1015.8
20260507111402 22 315 3.2 3.2 0.00 2.51 0.00 57 1015.8
20260507111301 22 180 6.4 14.5 0.00 2.51 0.00 55 1015.4
20260507111202 22 292 6.4 14.5 0.00 2.51 0.00 55 1015.6
20260507111102 22 90 1.6 3.2 0.00 2.51 0.00 57 1015.5
20260507111001 22 45 0.0 3.2 0.00 2.51 0.00 58 1015.5
20260507110901 22 68 3.2 3.2 0.00 2.51 0.00 58 1015.8
20260507110801 21 68 1.6 3.2 0.00 2.51 0.00 58 1015.6
20260507110700 21 68 3.2 6.4 0.00 2.51 0.00 56 1015.5
20260507110601 21 90 1.6 3.2 0.00 2.51 0.00 57 1015.7
20260507110501 21 292 1.6 3.2 0.00 2.51 0.00 58 1015.8
20260507110401 21 90 0.0 0.0 0.00 2.51 0.00 58 1015.7
20260507110301 21 135 0.0 0.0 0.00 2.51 0.00 59 1015.6
20260507110201 21 270 0.0 0.0 0.00 2.51 0.00 60 1015.7
20260507110001 21 270 1.6 3.2 0.00 2.51 0.00 59 1015.7
20260507105902 21 68 0.0 3.2 0.00 2.51 0.00 59 1015.6
20260507105802 21 68 1.6 3.2 0.00 2.51 0.00 60 1015.7
20260507105701 21 90 1.6 3.2 0.00 2.51 0.00 60 1015.6
20260507105602 21 68 0.0 3.2 0.00 2.51 0.00 60 1015.4
20260507105502 21 90 1.6 3.2 0.00 2.51 0.00 60 1015.5
20260507105401 21 90 3.2 6.4 0.00 2.51 0.00 61 1015.7
20260507105301 21 270 4.8 9.7 0.00 2.51 0.00 61 1015.5
20260507105201 21 292 6.4 9.7 0.00 2.51 0.00 60 1015.5
20260507105101 21 270 3.2 6.4 0.00 2.51 0.00 61 1015.6
20260507105001 21 248 6.4 9.7 0.00 2.51 0.00 59 1015.5
20260507104901 21 225 3.2 6.4 0.00 2.51 0.00 59 1015.8
20260507104800 21 270 4.8 9.7 0.00 2.51 0.00 58 1015.7
20260507104701 21 292 3.2 9.7 0.00 2.51 0.00 59 1015.8
20260507104601 21 270 3.2 3.2 0.00 2.51 0.00 60 1015.8
20260507104501 21 270 3.2 6.4 0.00 2.51 0.00 59 1015.9
20260507104401 21 270 0.0 3.2 0.00 2.51 0.00 59 1015.9
20260507104301 21 225 4.8 6.4 0.00 2.51 0.00 58 1015.6
20260507104201 21 112 1.6 3.2 0.00 2.51 0.00 56 1015.9
20260507104102 21 68 3.2 6.4 0.00 2.51 0.00 56 1015.8
20260507104001 21 68 3.2 6.4 0.00 2.51 0.00 56 1015.8
20260507103902 22 180 1.6 3.2 0.00 2.51 0.00 57 1016.0
20260507103802 22 45 1.6 3.2 0.00 2.51 0.00 57 1015.8
20260507103702 21 90 3.2 6.4 0.00 2.51 0.00 59 1015.9
20260507103602 21 315 3.2 6.4 0.00 2.51 0.00 58 1015.7
20260507103501 21 292 3.2 6.4 0.00 2.51 0.00 59 1015.7
20260507103402 21 90 0.0 3.2 0.00 2.51 0.00 62 1015.7
20260507103302 21 68 3.2 6.4 0.00 2.51 0.00 62 1015.9
20260507103202 21 68 1.6 3.2 0.00 2.51 0.00 63 1015.9
20260507103102 21 68 1.6 6.4 0.00 2.51 0.00 63 1015.9
20260507103002 21 135 1.6 3.2 0.00 2.51 0.00 64 1015.9
20260507102902 20 45 0.0 3.2 0.00 2.51 0.00 64 1015.9
20260507102801 20 90 0.0 3.2 0.00 2.51 0.00 64 1015.9
20260507102701 20 45 0.0 3.2 0.00 2.51 0.00 64 1016.0
20260507102602 20 90 1.6 3.2 0.00 2.51 0.00 64 1016.1
20260507102501 20 68 1.6 3.2 0.00 2.51 0.00 63 1016.0
20260507102401 20 135 3.2 6.4 0.00 2.51 0.00 63 1016.0
20260507102302 20 68 3.2 3.2 0.00 2.51 0.00 63 1015.9
20260507102202 20 135 1.6 3.2 0.00 2.51 0.00 60 1015.9
20260507102101 20 248 6.4 11.3 0.00 2.51 0.00 59 1016.0
20260507102001 20 248 6.4 9.7 0.00 2.51 0.00 60 1016.1
20260507101902 20 225 3.2 6.4 0.00 2.51 0.00 58 1016.1
20260507101803 20 248 3.2 6.4 0.00 2.51 0.00 58 1015.9
20260507101701 20 270 9.7 12.9 0.00 2.51 0.00 57 1016.0
20260507101601 20 270 4.8 12.9 0.00 2.51 0.00 57 1016.0
20260507101502 20 248 3.2 6.4 0.00 2.51 0.00 57 1016.0
20260507101402 20 90 0.0 3.2 0.00 2.51 0.00 61 1015.9
20260507101302 20 315 1.6 3.2 0.00 2.51 0.00 59 1015.9
20260507101203 20 270 3.2 6.4 0.00 2.51 0.00 60 1016.0
20260507101102 19 292 6.4 11.3 0.00 2.51 0.00 59 1016.2
20260507101002 20 338 3.2 6.4 0.00 2.51 0.00 61 1016.1
20260507100901 20 270 4.8 6.4 0.00 2.51 0.00 61 1016.1
20260507100801 20 292 3.2 6.4 0.00 2.51 0.00 63 1016.1
20260507100701 19 225 0.0 3.2 0.00 2.51 0.00 64 1016.1
20260507100602 19 90 0.0 0.0 0.00 2.51 0.00 65 1016.1
20260507100501 19 248 0.0 3.2 0.00 2.51 0.00 65 1016.0
20260507100401 19 292 3.2 6.4 0.00 2.51 0.00 65 1015.9
20260507100301 19 270 6.4 6.4 0.00 2.51 0.00 65 1015.9
20260507100202 19 270 3.2 6.4 0.00 2.51 0.00 66 1016.1
20260507100101 19 248 3.2 3.2 0.00 2.51 0.00 64 1016.1
20260507100001 20 270 3.2 6.4 0.00 2.51 0.00 65 1015.9
20260507095901 20 270 3.2 3.2 0.00 2.51 0.00 63 1015.8
20260507095801 20 270 0.0 0.0 0.00 2.51 0.00 62 1015.9
20260507095701 20 225 0.0 0.0 0.00 2.51 0.00 62 1016.1
20260507095602 20 248 0.0 0.0 0.00 2.51 0.00 62 1016.2
20260507095501 20 248 1.6 3.2 0.00 2.51 0.00 62 1016.1
20260507095401 20 248 0.0 0.0 0.00 2.51 0.00 62 1016.1
20260507095300 20 248 0.0 0.0 0.00 2.51 0.00 63 1015.9
20260507095201 20 68 0.0 3.2 0.00 2.51 0.00 62 1015.9
20260507095102 20 68 1.6 3.2 0.00 2.51 0.00 63 1016.1
20260507095000 20 68 1.6 3.2 0.00 2.51 0.00 63 1015.9
20260507094903 20 158 1.6 3.2 0.00 2.51 0.00 63 1016.2
20260507094802 20 68 1.6 3.2 0.00 2.51 0.00 63 1015.9
20260507094702 20 270 3.2 6.4 0.00 2.51 0.00 62 1015.9
20260507094602 20 292 6.4 6.4 0.00 2.51 0.00 62 1016.0
20260507094501 20 292 4.8 6.4 0.00 2.51 0.00 60 1016.1
20260507094401 21 270 1.6 3.2 0.00 2.51 0.00 61 1015.8
20260507094301 20 68 1.6 6.4 0.00 2.51 0.00 61 1015.8
20260507094201 20 68 1.6 3.2 0.00 2.51 0.00 63 1015.8
20260507094102 20 45 1.6 3.2 0.00 2.51 0.00 63 1016.0
20260507094002 20 68 1.6 3.2 0.00 2.51 0.00 63 1016.0
20260507093901 20 90 0.0 0.0 0.00 2.51 0.00 63 1016.1
20260507093801 20 68 0.0 3.2 0.00 2.51 0.00 64 1015.9
20260507093701 20 68 1.6 3.2 0.00 2.51 0.00 64 1016.0
20260507093600 20 68 0.0 3.2 0.00 2.51 0.00 65 1015.9
20260507093501 20 45 1.6 3.2 0.00 2.51 0.00 65 1015.9
20260507093401 19 68 3.2 3.2 0.00 2.51 0.00 67 1015.8
20260507093302 19 68 3.2 6.4 0.00 2.51 0.00 68 1016.0
20260507093201 19 68 3.2 6.4 0.00 2.51 0.00 67 1016.0
20260507093100 18 292 4.8 6.4 0.00 2.51 0.00 68 1015.8
20260507093002 19 248 3.2 6.4 0.00 2.51 0.00 67 1015.8
20260507092901 19 270 4.8 6.4 0.00 2.51 0.00 66 1015.9
20260507092801 19 248 4.8 6.4 0.00 2.51 0.00 65 1016.1
20260507092702 20 248 3.2 6.4 0.00 2.51 0.00 64 1015.8
20260507092602 20 292 4.8 6.4 0.00 2.51 0.00 63 1015.8
20260507092502 21 292 1.6 3.2 0.00 2.51 0.00 62 1016.0
20260507092402 21 180 1.6 3.2 0.00 2.51 0.00 61 1016.0
20260507092301 21 225 0.0 3.2 0.00 2.51 0.00 61 1015.8
20260507092201 21 248 1.6 3.2 0.00 2.51 0.00 63 1016.0
20260507092102 21 270 0.0 3.2 0.00 2.51 0.00 65 1015.9
20260507092001 21 68 0.0 0.0 0.00 2.51 0.00 65 1015.8
20260507091900 20 68 0.0 3.2 0.00 2.51 0.00 66 1015.7
20260507091801 20 158 0.0 0.0 0.00 2.51 0.00 68 1015.9
20260507091701 20 68 0.0 3.2 0.00 2.51 0.00 68 1016.0
20260507091602 20 45 0.0 3.2 0.00 2.51 0.00 69 1016.0
20260507091501 20 90 0.0 3.2 0.00 2.51 0.00 69 1015.8
20260507091401 19 90 0.0 0.0 0.00 2.51 0.00 70 1015.7
20260507091301 19 68 0.0 0.0 0.00 2.51 0.00 70 1016.1
20260507091201 18 202 0.0 3.2 0.00 2.51 0.00 70 1015.9
20260507091101 18 112 0.0 0.0 0.00 2.51 0.00 69 1016.0
20260507091001 18 202 3.2 6.4 0.00 2.51 0.00 69 1015.6
20260507090902 18 158 1.6 3.2 0.00 2.51 0.00 70 1015.9
20260507090801 18 248 1.6 6.4 0.00 2.51 0.00 70 1016.1
20260507090702 18 292 1.6 3.2 0.00 2.51 0.00 70 1015.9
20260507090602 18 180 3.2 6.4 0.00 2.51 0.00 70 1015.9
20260507090502 18 248 6.4 6.4 0.00 2.51 0.00 69 1015.9
20260507090401 18 248 4.8 6.4 0.00 2.51 0.00 70 1015.7
20260507090302 18 202 1.6 3.2 0.00 2.51 0.00 69 1016.1
20260507090202 18 225 0.0 0.0 0.00 2.51 0.00 68 1015.9
20260507090002 18 270 3.2 6.4 0.00 2.51 0.00 69 1016.0
20260507085902 18 270 6.4 9.7 0.00 2.51 0.00 70 1016.1
20260507085802 18 270 4.8 6.4 0.00 2.51 0.00 69 1016.0
20260507085702 18 292 6.4 9.7 0.00 2.51 0.00 69 1015.7
20260507085601 18 292 6.4 9.7 0.00 2.51 0.00 69 1016.0
20260507085501 18 270 3.2 6.4 0.00 2.51 0.00 69 1015.9
20260507085402 18 292 3.2 9.7 0.00 2.51 0.00 68 1015.9
20260507085306 18 292 6.4 11.3 0.00 2.51 0.00 67 1016.0
20260507085202 18 292 4.8 6.4 0.00 2.51 0.00 67 1016.0
20260507085101 18 270 3.2 6.4 0.00 2.51 0.00 67 1016.1
20260507085001 18 292 6.4 9.7 0.00 2.51 0.00 67 1015.8
20260507084902 18 315 3.2 9.7 0.00 2.51 0.00 68 1015.9
20260507084801 19 292 3.2 6.4 0.00 2.51 0.00 69 1015.9
20260507084702 19 68 1.6 3.2 0.00 2.51 0.00 70 1016.1
20260507084602 18 112 3.2 3.2 0.00 2.51 0.00 70 1015.9
20260507084502 18 68 3.2 6.4 0.00 2.51 0.00 70 1016.1
20260507084402 18 68 3.2 3.2 0.00 2.51 0.00 70 1016.1
20260507084302 18 90 3.2 3.2 0.00 2.51 0.00 69 1016.2
20260507084202 18 225 3.2 6.4 0.00 2.51 0.00 69 1016.0
20260507084102 19 225 3.2 6.4 0.00 2.51 0.00 70 1016.2
20260507084002 18 180 3.2 3.2 0.00 2.51 0.00 70 1016.0
20260507083901 19 248 1.6 3.2 0.00 2.51 0.00 72 1016.1
20260507083802 18 202 1.6 3.2 0.00 2.51 0.00 72 1016.0
20260507083701 18 68 1.6 3.2 0.00 2.51 0.00 73 1016.2
20260507083601 18 45 3.2 3.2 0.00 2.51 0.00 74 1016.1
20260507083501 18 45 3.2 3.2 0.00 2.51 0.00 74 1016.2
20260507083402 17 315 3.2 6.4 0.00 2.51 0.00 73 1016.0
20260507083302 17 292 4.8 6.4 0.00 2.51 0.00 73 1016.3
20260507083202 17 292 4.8 6.4 0.00 2.51 0.00 73 1016.3
20260507083102 17 270 3.2 6.4 0.00 2.51 0.00 73 1016.0
20260507083001 18 292 4.8 6.4 0.00 2.51 0.00 73 1016.2
20260507082901 18 248 1.6 3.2 0.00 2.51 0.00 72 1016.2
20260507082802 17 270 3.2 3.2 0.00 2.51 0.00 72 1015.9
20260507082701 18 248 0.0 3.2 0.00 2.51 0.00 72 1016.3
20260507082601 18 270 0.0 3.2 0.00 2.51 0.00 74 1016.0
20260507082501 18 68 0.0 3.2 0.00 2.51 0.00 75 1016.0
20260507082401 18 68 1.6 3.2 0.00 2.51 0.00 74 1016.3
20260507082301 17 158 1.6 3.2 0.00 2.51 0.00 75 1016.2
20260507082201 17 68 3.2 3.2 0.00 2.51 0.00 75 1016.2
20260507082102 17 68 3.2 3.2 0.00 2.51 0.00 75 1016.1
20260507082001 17 68 3.2 6.4 0.00 2.51 0.00 76 1016.3
20260507081902 17 68 3.2 6.4 0.00 2.51 0.00 76 1016.2
20260507081802 17 90 6.4 6.4 0.00 2.51 0.00 76 1016.1
20260507081702 17 90 1.6 3.2 0.00 2.51 0.00 77 1016.2
20260507081601 17 45 3.2 6.4 0.00 2.51 0.00 77 1016.2
20260507081501 17 112 4.8 6.4 0.00 2.51 0.00 77 1016.2
20260507081401 17 68 4.8 6.4 0.00 2.51 0.00 77 1016.2
20260507081301 17 90 6.4 6.4 0.00 2.51 0.00 77 1016.1
20260507081202 17 90 6.4 6.4 0.00 2.51 0.00 77 1016.0
20260507081102 17 68 4.8 6.4 0.00 2.51 0.00 77 1016.0
20260507081002 17 90 4.8 6.4 0.00 2.51 0.00 77 1016.2
20260507080902 17 112 3.2 6.4 0.00 2.51 0.00 78 1016.1
20260507080801 17 135 3.2 3.2 0.00 2.51 0.00 78 1016.2
20260507080701 17 90 4.8 9.7 0.00 2.51 0.00 78 1016.3
20260507080601 17 68 6.4 6.4 0.00 2.51 0.00 78 1016.2
20260507080501 17 68 6.4 9.7 0.00 2.51 0.00 79 1016.2
20260507080401 17 68 4.8 6.4 0.00 2.51 0.00 79 1016.3
20260507080301 17 45 6.4 9.7 0.00 2.51 0.00 79 1016.0
20260507080201 17 90 3.2 6.4 0.00 2.51 0.00 79 1016.2
20260507080002 17 90 3.2 6.4 0.00 2.51 0.00 80 1016.2
20260507075902 17 90 3.2 6.4 0.00 2.51 0.00 80 1016.1
20260507075802 17 68 3.2 6.4 0.00 2.51 0.00 81 1016.0
20260507075702 17 45 4.8 6.4 0.00 2.51 0.00 81 1016.2
20260507075602 16 90 4.8 6.4 0.00 2.51 0.00 81 1015.9
20260507075502 16 68 3.2 3.2 0.00 2.51 0.00 81 1016.1
20260507075402 16 112 3.2 9.7 0.00 2.51 0.00 81 1016.1
20260507075301 16 68 6.4 11.3 0.00 2.51 0.00 81 1016.0
20260507075202 16 68 8.0 11.3 0.00 2.51 0.00 81 1016.0
20260507075102 16 90 6.4 12.9 0.00 2.51 0.00 82 1016.2
20260507075002 16 135 6.4 9.7 0.00 2.51 0.00 82 1016.1
20260507074902 16 90 6.4 9.7 0.00 2.51 0.00 82 1016.1
20260507074801 16 68 4.8 9.7 0.00 2.51 0.00 82 1016.1
20260507074702 16 112 6.4 6.4 0.00 2.51 0.00 82 1016.3
20260507074602 16 90 3.2 6.4 0.00 2.51 0.00 82 1016.1
20260507074502 16 45 6.4 11.3 0.00 2.51 0.00 82 1016.1
20260507074401 16 68 6.4 9.7 0.00 2.51 0.00 82 1016.1
20260507074302 16 90 3.2 6.4 0.00 2.51 0.00 82 1016.1
20260507074202 16 68 4.8 9.7 0.00 2.51 0.00 82 1016.1
20260507074102 16 68 6.4 11.3 0.00 2.51 0.00 82 1015.9
20260507074001 16 90 6.4 11.3 0.00 2.51 0.00 82 1016.1
20260507073902 16 45 6.4 11.3 0.00 2.51 0.00 83 1016.0
20260507073802 16 45 6.4 11.3 0.00 2.51 0.00 83 1016.1
20260507073702 16 45 3.2 9.7 0.00 2.51 0.00 83 1016.0
20260507073602 16 45 3.2 9.7 0.00 2.51 0.00 83 1016.4
20260507073502 16 90 8.0 12.9 0.00 2.51 0.00 83 1016.1
20260507073402 16 90 8.0 12.9 0.00 2.51 0.00 83 1016.1
20260507073302 16 68 6.4 6.4 0.00 2.51 0.00 83 1015.9
20260507073202 16 68 6.4 11.3 0.00 2.51 0.00 83 1016.0
20260507073101 16 68 4.8 9.7 0.00 2.51 0.00 83 1016.2
20260507073002 16 68 11.3 14.5 0.00 2.51 0.00 83 1016.0
20260507072902 16 112 6.4 9.7 0.00 2.51 0.00 83 1016.0
20260507072802 16 90 6.4 12.9 0.00 2.51 0.00 83 1016.1
20260507072702 16 90 6.4 9.7 0.00 2.51 0.00 83 1016.1
20260507072601 15 90 8.0 11.3 0.00 2.51 0.00 83 1016.2
20260507072502 16 68 6.4 11.3 0.00 2.51 0.00 83 1016.1
20260507072402 16 68 4.8 6.4 0.00 2.51 0.00 83 1015.9
20260507072306 15 90 6.4 11.3 0.00 2.51 0.00 83 1015.9
20260507072202 15 112 6.4 11.3 0.00 2.51 0.00 83 1016.1
20260507072102 15 45 9.7 12.9 0.00 2.51 0.00 83 1015.9
20260507072002 16 68 6.4 11.3 0.00 2.51 0.00 83 1016.0
20260507071902 15 90 6.4 9.7 0.00 2.51 0.00 83 1016.1
20260507071801 16 45 6.4 9.7 0.00 2.51 0.00 83 1015.9
20260507071701 16 45 3.2 9.7 0.00 2.51 0.00 84 1015.8
20260507071602 16 45 4.8 9.7 0.00 2.51 0.00 84 1016.0
20260507071501 15 90 4.8 6.4 0.00 2.51 0.00 84 1015.8
20260507071402 15 90 6.4 11.3 0.00 2.51 0.00 84 1015.8
20260507071302 15 68 6.4 9.7 0.00 2.51 0.00 84 1016.0
20260507071201 15 68 6.4 11.3 0.00 2.51 0.00 84 1015.8
20260507071101 15 68 6.4 12.9 0.00 2.51 0.00 84 1015.9
20260507071001 15 68 6.4 11.3 0.00 2.51 0.00 84 1015.7
20260507070901 15 68 6.4 9.7 0.00 2.51 0.00 84 1015.9
20260507070802 15 45 4.8 6.4 0.00 2.51 0.00 84 1015.8
20260507070702 15 68 6.4 9.7 0.00 2.51 0.00 84 1015.8
20260507070601 15 90 6.4 11.3 0.00 2.51 0.00 84 1015.9
20260507070503 15 45 8.0 11.3 0.00 2.51 0.00 83 1015.8
20260507070401 15 90 6.4 9.7 0.00 2.51 0.00 84 1015.8
20260507070302 15 68 6.4 9.7 0.00 2.51 0.00 84 1015.8
20260507070202 15 45 8.0 12.9 0.00 2.51 0.00 84 1015.7
20260507070001 15 45 4.8 6.4 0.00 2.51 0.00 84 1015.8
20260507065902 15 45 6.4 9.7 0.00 2.51 0.00 84 1015.6
20260507065801 15 45 6.4 6.4 0.00 2.51 0.00 84 1015.5
20260507065701 15 90 4.8 6.4 0.00 2.51 0.00 84 1015.5
20260507065601 15 68 6.4 9.7 0.00 2.51 0.00 84 1015.8
20260507065501 15 22 8.0 11.3 0.00 2.51 0.00 84 1015.7
20260507065401 15 45 6.4 11.3 0.00 2.51 0.00 84 1015.5
20260507065301 15 68 9.7 12.9 0.00 2.51 0.00 84 1015.6
20260507065202 15 45 8.0 14.5 0.00 2.51 0.00 85 1015.8
20260507065102 15 68 8.0 11.3 0.00 2.51 0.00 85 1015.7
20260507065005 15 22 6.4 12.9 0.00 2.51 0.00 85 1015.6
20260507064901 15 68 6.4 12.9 0.00 2.51 0.00 85 1016.0
20260507064801 15 68 6.4 11.3 0.00 2.51 0.00 85 1015.5
20260507064701 15 45 8.0 11.3 0.00 2.51 0.00 86 1015.6
20260507064601 15 90 8.0 12.9 0.00 2.51 0.00 86 1015.8
20260507064500 15 112 6.4 12.9 0.00 2.51 0.00 86 1015.8
20260507064401 15 68 6.4 11.3 0.00 2.51 0.00 86 1015.7
20260507064300 15 22 6.4 9.7 0.00 2.51 0.00 87 1015.6
20260507064201 15 45 6.4 11.3 0.00 2.51 0.00 87 1015.6
20260507064100 15 45 6.4 9.7 0.00 2.51 0.00 87 1015.8
20260507064001 15 68 8.0 11.3 0.00 2.51 0.00 87 1015.8
20260507063901 15 45 6.4 9.7 0.00 2.51 0.00 87 1015.8
20260507063801 14 90 8.0 12.9 0.00 2.51 0.00 87 1015.6
20260507063701 14 68 8.0 11.3 0.00 2.51 0.00 88 1015.8
20260507063601 14 68 6.4 11.3 0.00 2.51 0.00 88 1015.7
20260507063502 14 90 6.4 9.7 0.00 2.51 0.00 88 1015.6
20260507063402 14 68 6.4 11.3 0.00 2.51 0.00 89 1015.7
20260507063302 14 68 6.4 11.3 0.00 2.51 0.00 89 1015.5
20260507063202 14 68 6.4 11.3 0.00 2.51 0.00 89 1015.7
20260507063102 14 68 6.4 9.7 0.00 2.51 0.00 89 1015.5
20260507063001 14 22 6.4 9.7 0.00 2.51 0.00 89 1015.6
20260507062901 14 112 6.4 9.7 0.00 2.51 0.00 89 1015.6
20260507062802 14 68 6.4 11.3 0.00 2.51 0.00 89 1015.5
20260507062702 14 45 6.4 11.3 0.00 2.51 0.00 90 1015.7
20260507062602 14 45 4.8 6.4 0.00 2.51 0.00 90 1015.3
20260507062501 14 68 4.8 11.3 0.00 2.51 0.00 90 1015.6
20260507062401 13 68 9.7 14.5 0.00 2.51 0.00 90 1015.5
20260507062301 13 90 6.4 11.3 0.00 2.51 0.00 90 1015.5
20260507062201 13 45 6.4 12.9 0.00 2.51 0.00 91 1015.6
20260507062101 13 45 6.4 12.9 0.00 2.51 0.00 91 1015.5
20260507062002 13 90 6.4 11.3 0.00 2.51 0.00 91 1015.4
20260507061901 13 68 8.0 12.9 0.00 2.51 0.00 91 1015.5
20260507061802 13 90 6.4 9.7 0.00 2.51 0.00 92 1015.4
20260507061702 13 68 4.8 6.4 0.00 2.51 0.00 92 1015.5
20260507061601 13 45 4.8 9.7 0.00 2.51 0.00 92 1015.4
20260507061502 13 90 3.2 6.4 0.00 2.51 0.00 92 1015.4
20260507061403 13 45 4.8 6.4 0.00 2.51 0.00 92 1015.7
20260507061302 13 68 4.8 6.4 0.00 2.51 0.00 92 1015.6
20260507061202 13 112 6.4 9.7 0.00 2.51 0.00 92 1015.5
20260507061102 13 68 6.4 9.7 0.00 2.51 0.00 93 1015.5
20260507061002 13 68 3.2 6.4 0.00 2.51 0.00 93 1015.2
20260507060902 13 90 4.8 6.4 0.00 2.51 0.00 93 1015.4
20260507060801 13 90 4.8 6.4 0.00 2.51 0.00 93 1015.5
20260507060702 13 90 3.2 6.4 0.00 2.51 0.00 93 1015.4
20260507060602 13 45 4.8 6.4 0.00 2.51 0.00 93 1015.4
20260507060502 13 45 4.8 6.4 0.00 2.51 0.00 93 1015.4
20260507060402 13 90 6.4 9.7 0.00 2.51 0.00 93 1015.3
20260507060302 13 90 4.8 6.4 0.00 2.51 0.00 94 1015.5
20260507060202 13 90 3.2 6.4 0.00 2.51 0.00 94 1015.4
20260507060001 12 90 6.4 6.4 0.00 2.51 0.00 94 1015.6
20260507055901 12 68 3.2 6.4 0.00 2.51 0.00 94 1015.3
20260507055801 12 68 6.4 9.7 0.00 2.51 0.00 94 1015.4
20260507055701 12 90 6.4 9.7 0.00 2.51 0.00 94 1015.2
20260507055601 12 68 6.4 11.3 0.00 2.51 0.00 94 1015.2
20260507055501 12 68 4.8 6.4 0.00 2.51 0.00 94 1015.3
20260507055401 12 45 4.8 6.4 0.00 2.51 0.00 94 1015.4
20260507055301 12 68 6.4 9.7 0.00 2.51 0.00 95 1015.2
20260507055201 12 45 6.4 11.3 0.00 2.51 0.00 95 1015.1
20260507055101 12 90 4.8 6.4 0.00 2.51 0.00 95 1015.3
20260507055001 12 45 6.4 12.9 0.00 2.51 0.00 95 1015.1
20260507054901 12 45 4.8 9.7 0.00 2.51 0.00 95 1015.5
20260507054802 12 90 4.8 6.4 0.00 2.51 0.00 95 1015.3
20260507054702 12 68 4.8 6.4 0.00 2.51 0.00 95 1015.1
20260507054602 12 45 8.0 11.3 0.00 2.51 0.00 95 1015.3
20260507054502 12 68 6.4 9.7 0.00 2.51 0.00 95 1015.2
20260507054402 12 68 6.4 9.7 0.00 2.51 0.00 95 1015.3
20260507054302 12 68 8.0 12.9 0.00 2.51 0.00 95 1015.3
20260507054202 12 68 4.8 6.4 0.00 2.51 0.00 95 1015.2
20260507054102 12 45 6.4 6.4 0.00 2.51 0.00 95 1015.2
20260507054002 12 90 6.4 9.7 0.00 2.51 0.00 95 1015.2
20260507053901 12 90 6.4 9.7 0.00 2.51 0.00 95 1015.2
20260507053801 12 90 3.2 6.4 0.00 2.51 0.00 95 1015.0
20260507053701 12 90 4.8 6.4 0.00 2.51 0.00 95 1015.1
20260507053601 12 112 6.4 9.7 0.00 2.51 0.00 96 1015.0
20260507053501 12 68 6.4 11.3 0.00 2.51 0.00 96 1015.2
20260507053401 12 90 4.8 6.4 0.00 2.51 0.00 96 1015.1
20260507053301 12 68 6.4 9.7 0.00 2.51 0.00 96 1015.3
20260507053201 12 68 4.8 6.4 0.00 2.51 0.00 96 1015.2
20260507053104 12 90 4.8 6.4 0.00 2.51 0.00 96 1015.2
20260507053001 12 90 6.4 9.7 0.00 2.51 0.00 96 1015.0
20260507052902 12 90 6.4 11.3 0.00 2.51 0.00 96 1014.9
20260507052801 12 90 4.8 6.4 0.00 2.51 0.00 96 1015.1
20260507052701 12 68 4.8 6.4 0.00 2.54 0.00 96 1015.0
20260507052601 12 68 6.4 9.7 0.00 2.54 0.00 96 1015.1
20260507052501 12 68 6.4 9.7 0.00 2.57 0.00 96 1015.1
20260507052401 12 68 4.8 6.4 0.00 2.57 0.00 96 1015.2
20260507052301 12 68 4.8 6.4 0.00 2.57 0.00 96 1015.2
20260507052201 12 90 4.8 6.4 0.00 2.57 0.00 96 1015.0
20260507052101 12 90 4.8 6.4 0.00 2.59 0.00 96 1015.0
20260507052001 12 68 4.8 6.4 0.00 2.59 0.00 96 1015.1
20260507051901 12 68 4.8 6.4 0.00 2.59 0.00 96 1015.1
20260507051802 12 68 6.4 11.3 0.00 2.59 0.00 96 1015.1
20260507051702 12 68 6.4 9.7 0.00 2.59 0.00 96 1014.9
20260507051602 11 90 6.4 9.7 0.00 2.59 0.00 96 1014.9
20260507051502 11 90 6.4 9.7 0.00 2.59 0.00 96 1015.1
20260507051402 11 68 6.4 11.3 0.00 2.59 0.00 96 1014.9
20260507051301 11 68 6.4 6.4 0.00 2.59 0.00 96 1015.1
20260507051201 11 90 3.2 6.4 0.00 2.59 0.00 96 1015.1
20260507051102 11 90 6.4 11.3 0.00 2.59 0.00 96 1015.1
20260507051002 11 90 4.8 6.4 0.00 2.59 0.00 96 1015.1
20260507050902 11 90 3.2 3.2 0.00 2.59 0.00 96 1014.9
20260507050801 11 90 3.2 3.2 0.00 2.59 0.00 96 1015.0
20260507050702 11 90 3.2 6.4 0.00 2.59 0.00 96 1015.0
20260507050601 11 45 4.8 9.7 0.00 2.59 0.00 96 1015.1
20260507050501 11 90 3.2 6.4 0.00 2.59 0.00 96 1014.9
20260507050402 11 45 4.8 9.7 0.00 2.59 0.00 96 1015.0
20260507050301 11 68 4.8 6.4 0.00 2.59 0.00 96 1014.9
20260507050201 11 68 1.6 3.2 0.00 2.59 0.00 96 1014.8
20260507050002 11 68 3.2 6.4 0.00 2.59 0.00 96 1014.8
20260507045904 11 68 3.2 6.4 0.00 2.59 0.00 96 1015.0
20260507045806 11 90 6.4 9.7 0.00 2.59 0.00 96 1015.1
20260507045706 11 68 3.2 6.4 0.00 2.59 0.00 96 1015.0
20260507045605 11 45 4.8 6.4 0.00 2.59 0.00 96 1015.0
20260507045501 11 68 3.2 6.4 0.00 2.59 0.00 96 1015.0
20260507045402 11 68 3.2 6.4 0.00 2.59 0.00 96 1014.9
20260507045306 11 68 3.2 6.4 0.00 2.59 0.00 96 1015.1
20260507045202 11 90 6.4 6.4 0.00 2.59 0.00 96 1014.7
20260507045102 11 68 4.8 6.4 0.00 2.59 0.00 96 1014.9
20260507045002 11 90 4.8 9.7 0.00 2.59 0.00 96 1014.7
20260507044902 11 45 6.4 9.7 0.00 2.59 0.00 96 1014.6
20260507044802 11 68 4.8 6.4 0.00 2.59 0.00 96 1014.9
20260507044701 11 90 6.4 9.7 0.00 2.59 0.00 96 1014.7
20260507044602 11 90 6.4 9.7 0.00 2.59 0.00 96 1014.6
20260507044502 11 90 3.2 6.4 0.00 2.59 0.00 96 1014.8
20260507044401 11 90 3.2 6.4 0.00 2.59 0.00 96 1014.8
20260507044302 11 90 4.8 6.4 0.00 2.59 0.00 96 1014.8
20260507044202 11 68 3.2 6.4 0.00 2.59 0.00 96 1014.6
20260507044101 11 68 4.8 6.4 0.00 2.59 0.00 96 1014.7
20260507044002 11 90 3.2 6.4 0.00 2.59 0.00 96 1014.7
20260507043901 11 68 3.2 6.4 0.00 2.59 0.00 96 1014.8
20260507043801 11 68 3.2 6.4 0.00 2.59 0.00 96 1014.8
20260507043702 11 45 3.2 6.4 0.00 2.59 0.00 96 1014.5
20260507043601 11 90 3.2 6.4 0.00 2.59 0.00 96 1014.7
20260507043501 11 68 3.2 6.4 0.00 2.59 0.00 96 1014.7
20260507043401 11 112 4.8 6.4 0.00 2.59 0.00 96 1014.6
20260507043301 11 68 3.2 6.4 0.00 2.59 0.00 96 1014.5
20260507043201 11 68 4.8 6.4 0.00 2.59 0.00 96 1014.7
20260507043101 11 90 4.8 6.4 0.00 2.59 0.00 96 1014.5
20260507043001 11 90 4.8 6.4 0.00 2.59 0.00 96 1014.6
20260507042901 11 68 3.2 6.4 0.00 2.59 0.00 96 1014.6
20260507042802 11 90 3.2 6.4 0.00 2.59 0.00 96 1014.6
20260507042702 11 68 4.8 6.4 0.00 2.59 0.00 96 1014.7
20260507042602 11 68 4.8 9.7 0.00 2.59 0.00 96 1014.8
20260507042502 11 90 6.4 11.3 0.00 2.59 0.00 96 1014.6
20260507042401 11 68 6.4 6.4 0.00 2.59 0.00 96 1014.8
20260507042302 11 68 4.8 6.4 0.00 2.59 0.00 96 1014.7
20260507042201 11 68 6.4 9.7 0.00 2.59 0.00 96 1014.8
20260507042102 11 68 6.4 9.7 0.00 2.59 0.00 96 1014.7
20260507042002 11 68 4.8 6.4 0.00 2.59 0.00 96 1014.6
20260507041902 11 68 4.8 6.4 0.00 2.59 0.00 96 1014.7
20260507041801 11 45 3.2 6.4 0.00 2.59 0.00 95 1014.7
20260507041701 11 45 4.8 6.4 0.00 2.59 0.00 95 1014.9
20260507041601 11 90 6.4 9.7 0.00 2.59 0.00 95 1014.5
20260507041501 11 90 6.4 9.7 0.00 2.59 0.00 95 1014.7
20260507041401 11 90 6.4 11.3 0.00 2.59 0.00 95 1014.5
20260507041301 11 90 6.4 11.3 0.00 2.59 0.00 95 1014.7
20260507041202 11 45 6.4 11.3 0.00 2.59 0.00 95 1014.7
20260507041101 11 90 3.2 6.4 0.00 2.59 0.00 95 1014.6
20260507041001 11 45 3.2 6.4 0.00 2.59 0.00 95 1014.5
20260507040901 11 68 3.2 6.4 0.00 2.59 0.00 95 1014.5
20260507040802 11 68 4.8 9.7 0.00 2.59 0.00 95 1014.5
20260507040702 11 68 4.8 6.4 0.00 2.59 0.00 95 1014.6
20260507040602 11 45 3.2 3.2 0.00 2.59 0.00 95 1014.5
20260507040501 11 45 3.2 3.2 0.00 2.59 0.00 95 1014.7
20260507040401 11 90 3.2 6.4 0.00 2.59 0.00 95 1014.6
20260507040302 11 90 4.8 6.4 0.00 2.59 0.00 95 1014.7
20260507040202 11 68 6.4 9.7 0.00 2.59 0.00 95 1014.6
20260507040002 11 45 4.8 6.4 0.00 2.59 0.00 95 1014.5
20260507035902 11 45 6.4 6.4 0.00 2.59 0.00 95 1014.3
20260507035802 11 45 3.2 6.4 0.00 2.59 0.00 95 1014.8
20260507035702 11 45 3.2 6.4 0.00 2.59 0.00 95 1014.8
20260507035602 11 45 3.2 6.4 0.00 2.59 0.00 95 1014.5
20260507035502 11 68 1.6 3.2 0.00 2.59 0.00 95 1014.5
20260507035402 11 90 3.2 6.4 0.00 2.59 0.00 95 1014.5
20260507035302 11 45 0.0 0.0 0.00 2.59 0.00 94 1014.5
20260507035201 11 45 0.0 0.0 0.00 2.59 0.00 94 1014.8
20260507035101 11 90 1.6 3.2 0.00 2.59 0.00 94 1014.7
20260507035002 11 45 3.2 3.2 0.00 2.59 0.00 94 1014.5
20260507034902 11 68 3.2 3.2 0.00 2.59 0.00 94 1014.5
20260507034801 11 45 3.2 3.2 0.00 2.59 0.00 94 1014.7
20260507034701 11 68 1.6 3.2 0.00 2.59 0.00 94 1014.8
20260507034601 11 68 1.6 3.2 0.00 2.59 0.00 94 1014.5
20260507034501 11 68 3.2 3.2 0.00 2.59 0.00 94 1014.4
20260507034402 11 45 1.6 3.2 0.00 2.59 0.00 94 1014.4
20260507034301 11 68 3.2 6.4 0.00 2.59 0.00 94 1014.5
20260507034202 11 90 3.2 3.2 0.00 2.59 0.00 94 1014.7
20260507034102 11 112 1.6 3.2 0.00 2.59 0.00 94 1014.5
20260507034001 11 68 1.6 3.2 0.00 2.59 0.00 94 1014.4
20260507033902 11 90 1.6 3.2 0.00 2.59 0.00 94 1014.6
20260507033802 11 90 3.2 6.4 0.00 2.59 0.00 94 1014.6
20260507033701 11 68 3.2 3.2 0.00 2.59 0.00 94 1014.8
20260507033603 11 90 3.2 3.2 0.00 2.59 0.00 94 1014.8
20260507033502 11 90 1.6 3.2 0.00 2.59 0.00 94 1014.4
20260507033402 11 68 0.0 3.2 0.00 2.59 0.00 94 1014.6
20260507033302 11 90 1.6 3.2 0.00 2.59 0.00 94 1014.5
20260507033202 11 68 3.2 3.2 0.00 2.59 0.00 94 1014.7
20260507033102 11 68 3.2 3.2 0.00 2.59 0.00 94 1014.5
20260507033002 11 112 1.6 3.2 0.00 2.59 0.00 94 1014.5
20260507032902 11 90 1.6 3.2 0.00 2.59 0.00 94 1014.5
20260507032801 11 90 1.6 3.2 0.00 2.59 0.00 94 1014.7
20260507032702 12 45 1.6 3.2 0.00 2.59 0.00 94 1014.5
20260507032601 12 68 1.6 3.2 0.00 2.59 0.00 94 1014.5
20260507032501 12 68 1.6 3.2 0.00 2.59 0.00 94 1014.3
20260507032402 12 90 1.6 3.2 0.00 2.59 0.00 94 1014.5
20260507032301 12 68 1.6 3.2 0.00 2.59 0.00 94 1014.5
20260507032201 12 112 1.6 3.2 0.00 2.59 0.00 93 1014.4
20260507032101 12 135 0.0 0.0 0.00 2.59 0.00 93 1014.6
20260507032001 12 135 0.0 0.0 0.00 2.59 0.00 93 1014.4
20260507031901 12 68 0.0 0.0 0.00 2.59 0.00 93 1014.4
20260507031801 12 90 0.0 3.2 0.00 2.59 0.00 93 1014.6
20260507031701 12 68 1.6 3.2 0.00 2.59 0.00 93 1014.7
20260507031600 12 68 0.0 0.0 0.00 2.59 0.00 93 1014.4
20260507031501 12 68 0.0 0.0 0.00 2.59 0.00 93 1014.5
20260507031401 12 90 3.2 3.2 0.00 2.59 0.00 93 1014.5
20260507031301 12 68 1.6 3.2 0.00 2.59 0.00 93 1014.5
20260507031201 12 68 1.6 3.2 0.00 2.59 0.00 93 1014.5
20260507031101 12 90 3.2 3.2 0.00 2.59 0.00 93 1014.7
20260507031001 12 45 3.2 3.2 0.00 2.59 0.00 93 1014.4
20260507030901 12 90 3.2 6.4 0.00 2.59 0.00 93 1014.4
20260507030802 12 22 3.2 6.4 0.00 2.59 0.00 93 1014.5
20260507030702 12 68 3.2 6.4 0.00 2.59 0.00 93 1014.6
20260507030602 12 68 3.2 6.4 0.00 2.59 0.00 93 1014.4
20260507030501 12 90 3.2 6.4 0.00 2.59 0.00 93 1014.4
20260507030402 12 90 3.2 3.2 0.00 2.59 0.00 93 1014.6
20260507030302 12 90 3.2 3.2 0.00 2.59 0.00 93 1014.5
20260507030202 12 45 1.6 3.2 0.00 2.59 0.00 93 1014.4
20260507030101 12 45 3.2 3.2 0.00 2.59 0.00 93 1014.4
20260507030002 12 68 3.2 3.2 0.00 2.59 0.00 93 1014.5
20260507025901 12 45 3.2 6.4 0.00 2.59 0.00 93 1014.5
20260507025801 12 68 4.8 6.4 0.00 2.59 0.00 93 1014.6
20260507025701 12 68 3.2 6.4 0.00 2.59 0.00 92 1014.4
20260507025601 12 45 3.2 6.4 0.00 2.59 0.00 92 1014.5
20260507025502 12 68 3.2 3.2 0.00 2.59 0.00 92 1014.3
20260507025401 12 90 3.2 6.4 0.00 2.59 0.00 92 1014.5
20260507025301 12 45 3.2 3.2 0.00 2.59 0.00 92 1014.5
20260507025201 12 45 1.6 3.2 0.00 2.62 0.00 92 1014.6
20260507025101 12 45 1.6 3.2 0.00 2.69 0.00 92 1014.5
20260507025001 12 68 1.6 3.2 0.00 2.72 0.00 92 1014.5
20260507024901 12 68 3.2 6.4 0.00 2.74 0.00 92 1014.6
20260507024802 12 45 1.6 3.2 0.00 2.77 0.00 92 1014.5
20260507024701 12 68 3.2 3.2 0.00 2.84 0.00 92 1014.5
20260507024601 12 68 3.2 3.2 0.00 2.87 0.00 92 1014.5
20260507024502 12 68 3.2 6.4 0.00 2.90 0.00 92 1014.5
20260507024401 12 90 3.2 3.2 0.00 2.90 0.00 92 1014.6
20260507024302 12 90 3.2 3.2 0.00 2.92 0.00 92 1014.7
20260507024201 12 68 3.2 6.4 0.00 2.92 0.00 91 1014.7
20260507024101 12 68 1.6 3.2 0.00 2.95 0.00 91 1014.7
20260507024003 12 68 3.2 3.2 0.00 3.00 0.00 91 1014.8
20260507023902 12 68 3.2 3.2 0.00 3.05 0.00 91 1014.3
20260507023801 12 68 3.2 3.2 0.00 3.05 0.00 91 1014.5
20260507023701 12 68 3.2 6.4 0.00 3.10 0.00 91 1014.6
20260507023602 12 68 4.8 6.4 0.00 3.15 0.00 91 1014.3
20260507023502 12 68 3.2 6.4 0.00 3.15 0.00 91 1014.5
20260507023402 12 68 0.0 3.2 0.00 3.20 0.00 91 1014.4
20260507023301 12 90 3.2 3.2 0.00 3.28 0.00 91 1014.5
20260507023201 12 90 1.6 3.2 0.00 3.33 0.00 90 1014.5
20260507023102 12 90 1.6 3.2 0.00 3.35 0.00 90 1014.6
20260507023002 12 90 1.6 3.2 0.00 3.38 0.00 90 1014.5
20260507022902 12 68 0.0 3.2 0.00 3.38 0.00 90 1014.3
20260507022801 12 68 0.0 0.0 0.00 3.40 0.00 90 1014.3
20260507022702 12 68 0.0 0.0 0.00 3.43 0.00 90 1014.5
20260507022601 12 68 0.0 0.0 0.00 3.56 0.00 90 1014.4
20260507022502 12 68 0.0 0.0 0.00 3.56 0.00 90 1014.5
20260507022400 12 68 1.6 3.2 0.00 3.66 0.00 90 1014.4
20260507022302 12 68 1.6 3.2 0.00 3.68 0.00 90 1014.4
20260507022200 12 68 1.6 3.2 0.00 3.73 0.00 90 1014.4
20260507022100 12 68 1.6 3.2 0.00 3.89 0.00 90 1014.3
20260507022001 12 90 3.2 6.4 0.00 3.89 0.00 90 1014.6
20260507021901 12 68 3.2 3.2 0.00 3.94 0.00 90 1014.6
20260507021802 12 90 1.6 3.2 0.00 3.94 0.00 90 1014.6
20260507021702 12 45 1.6 3.2 0.00 4.01 0.00 90 1014.4
20260507021602 12 68 1.6 3.2 0.00 4.01 0.00 90 1014.4
20260507021502 12 45 1.6 3.2 0.00 4.04 0.00 90 1014.5
20260507021402 13 68 1.6 3.2 0.00 4.06 0.00 90 1014.4
20260507021302 13 68 1.6 3.2 0.00 4.22 0.00 90 1014.4
20260507021201 12 68 1.6 3.2 0.00 4.24 0.00 90 1014.3
20260507021103 12 45 1.6 3.2 0.00 4.27 0.00 90 1014.3
20260507021002 12 45 1.6 3.2 0.00 4.34 0.00 90 1014.6
20260507020902 12 45 1.6 3.2 0.00 4.39 0.00 90 1014.5
20260507020802 12 45 1.6 3.2 0.00 4.42 0.00 90 1014.5
20260507020701 13 45 1.6 3.2 0.00 4.45 0.00 90 1014.4
20260507020601 12 45 3.2 3.2 0.00 4.45 0.00 90 1014.5
20260507020501 12 68 3.2 3.2 0.00 4.52 0.00 90 1014.5
20260507020401 12 45 3.2 3.2 0.00 4.55 0.00 90 1014.6
20260507020301 12 68 3.2 3.2 0.00 4.55 0.00 90 1014.6
20260507020201 12 45 3.2 3.2 0.00 4.55 0.00 90 1014.5
20260507020002 12 45 3.2 6.4 0.00 4.60 0.00 90 1014.6
20260507015901 12 45 1.6 3.2 0.00 4.60 0.00 90 1014.5
20260507015801 12 68 3.2 6.4 0.00 4.72 0.00 90 1014.5
20260507015701 12 45 3.2 6.4 0.00 4.72 0.00 90 1014.4
20260507015601 12 45 3.2 3.2 0.00 4.85 0.00 90 1014.6
20260507015501 12 45 3.2 3.2 0.00 4.90 0.00 90 1014.6
20260507015401 12 45 3.2 6.4 0.00 4.93 0.00 90 1014.5
20260507015301 13 45 3.2 3.2 0.00 5.00 0.00 90 1014.6
20260507015201 13 45 1.6 3.2 0.00 5.03 0.00 90 1014.5
20260507015101 13 45 3.2 3.2 0.00 5.03 0.00 90 1014.5
20260507015001 13 45 3.2 6.4 0.00 5.08 0.00 90 1014.4
20260507014902 13 45 3.2 3.2 0.00 5.08 0.00 90 1014.5
20260507014802 13 68 3.2 3.2 0.00 5.11 0.00 90 1014.5
20260507014702 13 45 1.6 3.2 0.00 5.11 0.00 90 1014.5
20260507014603 13 45 3.2 6.4 0.00 5.11 0.00 91 1014.4
20260507014502 13 45 3.2 3.2 0.00 5.11 0.00 91 1014.4
20260507014401 13 45 4.8 6.4 0.00 5.11 0.00 91 1014.6
20260507014301 13 45 3.2 6.4 0.00 5.11 0.00 91 1014.5
20260507014201 13 45 4.8 6.4 0.00 5.11 0.00 91 1014.4
20260507014102 13 22 6.4 9.7 0.00 5.11 0.00 91 1014.6
20260507014002 13 22 6.4 9.7 0.00 5.11 0.00 91 1014.5
20260507013901 13 45 4.8 6.4 0.00 5.11 0.00 91 1014.4
20260507013801 13 45 6.4 6.4 0.00 5.11 0.00 91 1014.4
20260507013701 13 45 4.8 6.4 0.00 5.11 0.00 91 1014.6
20260507013601 13 45 6.4 6.4 0.00 5.11 0.00 91 1014.5
20260507013502 13 45 3.2 6.4 0.00 5.11 0.00 91 1014.6
20260507013402 13 68 3.2 3.2 0.00 5.11 0.00 91 1014.6
20260507013301 13 68 3.2 6.4 0.00 5.11 0.00 91 1014.4
20260507013202 13 45 4.8 6.4 0.00 5.11 0.00 92 1014.5
20260507013102 13 22 3.2 6.4 0.00 5.11 0.00 92 1014.6
20260507013001 13 68 3.2 3.2 0.00 5.11 0.00 92 1014.3
20260507012901 13 45 3.2 6.4 0.00 5.11 0.00 92 1014.4
20260507012802 13 45 3.2 3.2 0.00 5.11 0.00 92 1014.5
20260507012702 13 22 3.2 6.4 0.00 5.11 0.00 92 1014.4
20260507012602 12 68 6.4 9.7 0.00 5.11 0.00 92 1014.3
20260507012502 12 45 4.8 9.7 0.00 5.11 0.00 92 1014.5
20260507012401 12 45 4.8 6.4 0.00 5.11 0.00 92 1014.5
20260507012305 12 45 4.8 6.4 0.00 5.11 0.00 92 1014.5
20260507012202 12 45 3.2 6.4 0.00 5.11 0.00 92 1014.4
20260507012102 12 45 1.6 3.2 0.00 5.11 0.00 92 1014.6
20260507012002 12 45 1.6 3.2 0.00 5.11 0.00 92 1014.4
20260507011902 12 45 3.2 3.2 0.00 5.11 0.00 92 1014.5
20260507011802 12 45 3.2 6.4 0.00 5.11 0.00 92 1014.4
20260507011701 12 68 3.2 6.4 0.00 5.11 0.00 92 1014.6
20260507011601 12 45 6.4 9.7 0.00 5.16 0.00 92 1014.5
20260507011501 12 45 4.8 9.7 0.00 5.16 0.00 92 1014.3
20260507011401 12 68 4.8 6.4 0.00 5.16 0.00 92 1014.4
20260507011301 12 45 3.2 6.4 0.00 5.18 0.00 92 1014.6
20260507011201 12 45 3.2 6.4 0.00 5.18 0.00 93 1014.5
20260507011102 12 45 3.2 3.2 0.00 5.18 0.00 93 1014.4
20260507011002 12 68 4.8 6.4 0.00 5.18 0.00 93 1014.3
20260507010901 12 22 3.2 6.4 0.00 5.21 0.00 93 1014.5
20260507010801 12 45 4.8 6.4 0.00 5.21 0.00 93 1014.4
20260507010701 12 45 4.8 6.4 0.00 5.21 0.00 93 1014.5
20260507010601 12 22 3.2 6.4 0.00 5.21 0.00 93 1014.5
20260507010501 12 45 3.2 6.4 0.00 5.21 0.00 93 1014.4
20260507010401 12 45 3.2 6.4 0.00 5.23 0.00 93 1014.6
20260507010301 12 45 3.2 3.2 0.00 5.23 0.00 93 1014.3
20260507010202 12 45 3.2 6.4 0.00 5.23 0.00 93 1014.5
20260507010101 12 45 3.2 6.4 0.00 5.23 0.00 93 1014.4
20260507010001 12 45 4.8 6.4 0.00 5.23 0.00 93 1014.6
20260507005901 12 22 1.6 6.4 0.00 5.23 0.00 93 1014.4
20260507005802 12 68 3.2 6.4 0.00 5.23 0.00 93 1014.6
20260507005702 12 45 3.2 6.4 0.00 5.23 0.00 93 1014.6
20260507005602 12 45 1.6 3.2 0.00 5.23 0.00 93 1014.5
20260507005502 12 45 3.2 6.4 0.00 5.23 0.00 93 1014.6
20260507005402 12 45 3.2 6.4 0.00 5.23 0.00 93 1014.6
20260507005305 12 68 3.2 6.4 0.00 5.26 0.00 92 1014.6
20260507005202 12 68 3.2 6.4 0.00 5.26 0.00 92 1014.5
20260507005101 12 68 3.2 6.4 0.00 5.26 0.00 92 1014.5
20260507005002 13 45 6.4 9.7 0.00 5.26 0.00 92 1014.7
20260507004902 12 45 4.8 9.7 0.00 5.38 0.00 92 1014.6
20260507004802 12 45 8.0 11.3 0.00 5.38 0.00 92 1014.4
20260507004702 13 45 6.4 6.4 0.00 5.41 0.00 92 1014.4
20260507004602 13 68 4.8 6.4 0.00 5.41 0.00 92 1014.7
20260507004501 13 45 4.8 9.7 0.00 5.49 0.00 92 1014.7
20260507004401 13 45 4.8 6.4 0.00 5.49 0.00 92 1014.5
20260507004302 13 45 6.4 9.7 0.00 5.49 0.00 92 1014.6
20260507004201 13 45 6.4 6.4 0.00 5.49 0.00 92 1014.5
20260507004101 13 45 4.8 6.4 0.00 5.49 0.00 92 1014.2
20260507004001 13 45 6.4 9.7 0.00 5.49 0.00 92 1014.4
20260507003901 13 45 6.4 9.7 0.00 5.51 0.00 92 1014.7
20260507003801 13 68 4.8 6.4 0.00 5.51 0.00 92 1014.7
20260507003701 13 45 6.4 9.7 0.00 5.51 0.00 92 1014.6
20260507003601 13 45 4.8 6.4 0.00 5.51 0.00 92 1014.7
20260507003501 13 45 4.8 6.4 0.00 5.51 0.00 92 1014.7
20260507003401 13 45 3.2 6.4 0.00 5.51 0.00 92 1014.6
20260507003301 13 45 4.8 6.4 0.00 5.51 0.00 92 1014.5
20260507003201 13 22 4.8 6.4 0.00 5.51 0.00 92 1014.6